Wetterdaten: Mittwoch, 19.07.2017
Datum Zeit Temp. Aussen Temp. o. S. +5cm Feuchte Auss BlattFeu 1 Luftdruck Regen Sonnenschein Regendauer Solar Windben Empfang
19.07.2017 00:00 22,6 C 21,7 C 20,0 C 64 % 0 lf 1012,6 hPa 0,0 l/m 0 min 0 min 0 W/m 16,7 km/h (3 Bft) 97,87 %
19.07.2017 00:02 22,6 C 21,7 C 20,0 C 64 % 0 lf 1012,5 hPa 0,0 l/m 0 min 0 min 0 W/m 4,2 km/h (1 Bft) 9,09 %
19.07.2017 00:04 22,6 C 22,2 C 20,0 C 64 % 0 lf 1012,5 hPa 0,0 l/m 0 min 0 min 2 W/m 10,5 km/h (2 Bft) 100,00 %
19.07.2017 00:06 22,5 C 21,7 C 20,0 C 64 % 0 lf 1012,5 hPa 0,0 l/m 0 min 0 min 0 W/m 10,5 km/h (2 Bft) 100,00 %
19.07.2017 00:10 22,4 C 21,7 C 20,0 C 64 % 0 lf 1012,5 hPa 0,0 l/m 0 min 0 min 0 W/m 18,8 km/h (3 Bft) 100,00 %
19.07.2017 00:12 22,4 C 21,7 C 20,0 C 64 % 0 lf 1012,6 hPa 0,0 l/m 0 min 0 min 0 W/m 6,3 km/h (2 Bft) 100,00 %
19.07.2017 00:14 22,4 C 21,7 C 20,0 C 64 % 0 lf 1012,6 hPa 0,0 l/m 0 min 0 min 0 W/m 10,5 km/h (2 Bft) 100,00 %
19.07.2017 00:16 22,4 C 21,7 C 20,0 C 64 % 0 lf 1012,6 hPa 0,0 l/m 0 min 0 min 0 W/m 10,5 km/h (2 Bft) 97,87 %
19.07.2017 00:18 22,4 C 21,7 C 20,0 C 64 % 0 lf 1012,6 hPa 0,0 l/m 0 min 0 min 0 W/m 6,3 km/h (2 Bft) 100,00 %
19.07.2017 00:20 22,3 C 21,7 C 20,0 C 64 % 0 lf 1012,5 hPa 0,0 l/m 0 min 0 min 0 W/m 10,5 km/h (2 Bft) 97,87 %
19.07.2017 00:22 22,3 C 21,7 C 20,0 C 65 % 0 lf 1012,5 hPa 0,0 l/m 0 min 0 min 0 W/m 12,6 km/h (3 Bft) 100,00 %
19.07.2017 00:24 22,3 C 21,7 C 20,0 C 65 % 0 lf 1012,5 hPa 0,0 l/m 0 min 0 min 0 W/m 12,6 km/h (3 Bft) 97,87 %
19.07.2017 00:26 22,3 C 21,7 C 19,4 C 65 % 0 lf 1012,5 hPa 0,0 l/m 0 min 0 min 0 W/m 10,5 km/h (2 Bft) 100,00 %
19.07.2017 00:28 22,3 C 21,7 C 19,4 C 65 % 0 lf 1012,5 hPa 0,0 l/m 0 min 0 min 0 W/m 12,6 km/h (3 Bft) 97,87 %
19.07.2017 00:30 22,3 C 21,7 C 19,4 C 65 % 0 lf 1012,5 hPa 0,0 l/m 0 min 0 min 0 W/m 12,6 km/h (3 Bft) 100,00 %
19.07.2017 00:32 22,2 C 21,7 C 19,4 C 65 % 0 lf 1012,5 hPa 0,0 l/m 0 min 0 min 0 W/m 12,6 km/h (3 Bft) 97,92 %
19.07.2017 00:34 22,2 C 21,7 C 19,4 C 65 % 0 lf 1012,5 hPa 0,0 l/m 0 min 0 min 0 W/m 10,5 km/h (2 Bft) 95,74 %
19.07.2017 00:36 22,2 C 21,1 C 19,4 C 65 % 0 lf 1012,5 hPa 0,0 l/m 0 min 0 min 0 W/m 14,6 km/h (3 Bft) 91,67 %
19.07.2017 00:38 22,2 C 21,1 C 19,4 C 65 % 0 lf 1012,5 hPa 0,0 l/m 0 min 0 min 0 W/m 12,6 km/h (3 Bft) 93,48 %
19.07.2017 00:40 22,1 C 21,1 C 19,4 C 65 % 0 lf 1012,5 hPa 0,0 l/m 0 min 0 min 0 W/m 10,5 km/h (2 Bft) 89,36 %
19.07.2017 00:42 22,1 C 21,1 C 19,4 C 66 % 0 lf 1012,5 hPa 0,0 l/m 0 min 0 min 0 W/m 12,6 km/h (3 Bft) 93,62 %
19.07.2017 00:44 22,1 C 21,1 C 18,9 C 66 % 0 lf 1012,5 hPa 0,0 l/m 0 min 0 min 0 W/m 12,6 km/h (3 Bft) 91,49 %
19.07.2017 00:46 22,1 C 21,1 C 19,4 C 66 % 0 lf 1012,5 hPa 0,0 l/m 0 min 0 min 0 W/m 10,5 km/h (2 Bft) 93,62 %
19.07.2017 00:48 22,0 C 21,1 C 19,4 C 66 % 0 lf 1012,5 hPa 0,0 l/m 0 min 0 min 0 W/m 8,4 km/h (2 Bft) 93,62 %
19.07.2017 00:50 22,0 C 21,1 C 18,9 C 66 % 0 lf 1012,4 hPa 0,0 l/m 0 min 0 min 0 W/m 6,3 km/h (2 Bft) 91,30 %
19.07.2017 00:52 22,0 C 21,1 C 18,9 C 66 % 0 lf 1012,5 hPa 0,0 l/m 0 min 0 min 0 W/m 12,6 km/h (3 Bft) 91,49 %
19.07.2017 00:54 21,9 C 20,6 C 18,9 C 66 % 0 lf 1012,5 hPa 0,0 l/m 0 min 0 min 0 W/m 10,5 km/h (2 Bft) 93,62 %
19.07.2017 00:56 21,9 C 20,6 C 18,9 C 67 % 0 lf 1012,5 hPa 0,0 l/m 0 min 0 min 0 W/m 10,5 km/h (2 Bft) 93,62 %
19.07.2017 00:58 21,9 C 20,6 C 18,9 C 67 % 0 lf 1012,4 hPa 0,0 l/m 0 min 0 min 0 W/m 10,5 km/h (2 Bft) 89,36 %
19.07.2017 01:00 21,9 C 20,6 C 18,9 C 67 % 0 lf 1012,4 hPa 0,0 l/m 0 min 0 min 0 W/m 10,5 km/h (2 Bft) 93,62 %
19.07.2017 01:02 21,8 C 20,6 C 18,9 C 67 % 0 lf 1012,3 hPa 0,0 l/m 0 min 0 min 0 W/m 6,3 km/h (2 Bft) 93,48 %
19.07.2017 01:04 21,8 C 20,6 C 18,3 C 67 % 0 lf 1012,3 hPa 0,0 l/m 0 min 0 min 0 W/m 10,5 km/h (2 Bft) 93,62 %
19.07.2017 01:06 21,8 C 20,6 C 18,3 C 67 % 0 lf 1012,3 hPa 0,0 l/m 0 min 0 min 0 W/m 8,4 km/h (2 Bft) 90,74 %
19.07.2017 01:08 21,7 C 20,6 C 18,3 C 67 % 0 lf 1012,3 hPa 0,0 l/m 0 min 0 min 0 W/m 8,4 km/h (2 Bft) 89,36 %
19.07.2017 01:10 21,7 C 20,6 C 18,3 C 67 % 0 lf 1012,4 hPa 0,0 l/m 0 min 0 min 4 W/m 6,3 km/h (2 Bft) 93,62 %
19.07.2017 01:12 21,7 C 20,6 C 18,3 C 67 % 0 lf 1012,4 hPa 0,0 l/m 0 min 0 min 0 W/m 12,6 km/h (3 Bft) 87,23 %
19.07.2017 01:14 21,7 C 20,6 C 18,3 C 68 % 0 lf 1012,4 hPa 0,0 l/m 0 min 0 min 3 W/m 8,4 km/h (2 Bft) 93,48 %
19.07.2017 01:16 21,6 C 20,6 C 18,3 C 68 % 0 lf 1012,3 hPa 0,0 l/m 0 min 0 min 0 W/m 6,3 km/h (2 Bft) 91,49 %
19.07.2017 01:18 21,6 C 20,6 C 18,3 C 68 % 0 lf 1012,4 hPa 0,0 l/m 0 min 0 min 0 W/m 6,3 km/h (2 Bft) 93,62 %
19.07.2017 01:20 21,6 C 20,6 C 18,3 C 68 % 0 lf 1012,4 hPa 0,0 l/m 0 min 0 min 0 W/m 6,3 km/h (2 Bft) 95,74 %
19.07.2017 01:22 21,5 C 20,6 C 18,3 C 68 % 0 lf 1012,4 hPa 0,0 l/m 0 min 0 min 0 W/m 12,6 km/h (3 Bft) 93,62 %
19.07.2017 01:24 21,5 C 20,6 C 18,3 C 68 % 0 lf 1012,3 hPa 0,0 l/m 0 min 0 min 0 W/m 10,5 km/h (2 Bft) 91,30 %
19.07.2017 01:26 21,5 C 20,6 C 18,3 C 68 % 0 lf 1012,3 hPa 0,0 l/m 0 min 0 min 0 W/m 6,3 km/h (2 Bft) 93,62 %
19.07.2017 01:28 21,4 C 20,6 C 18,3 C 69 % 0 lf 1012,4 hPa 0,0 l/m 0 min 0 min 0 W/m 14,6 km/h (3 Bft) 100,00 %
19.07.2017 01:30 21,4 C 20,6 C 18,3 C 69 % 0 lf 1012,3 hPa 0,0 l/m 0 min 0 min 0 W/m 12,6 km/h (3 Bft) 100,00 %
19.07.2017 01:32 21,3 C 20,6 C 18,3 C 69 % 0 lf 1012,3 hPa 0,0 l/m 0 min 0 min 0 W/m 8,4 km/h (2 Bft) 94,59 %
19.07.2017 01:34 21,3 C 20,6 C 18,3 C 69 % 0 lf 1012,3 hPa 0,0 l/m 0 min 0 min 0 W/m 6,3 km/h (2 Bft) 95,74 %
19.07.2017 01:36 21,3 C 20,6 C 18,3 C 69 % 0 lf 1012,3 hPa 0,0 l/m 0 min 0 min 0 W/m 10,5 km/h (2 Bft) 94,64 %
19.07.2017 01:38 21,3 C 20,6 C 18,3 C 69 % 0 lf 1012,3 hPa 0,0 l/m 0 min 0 min 0 W/m 6,3 km/h (2 Bft) 95,74 %
19.07.2017 01:40 21,2 C 20,6 C 18,3 C 70 % 0 lf 1012,3 hPa 0,0 l/m 0 min 0 min 0 W/m 10,5 km/h (2 Bft) 97,87 %
19.07.2017 01:43 21,2 C 20,6 C 18,3 C 70 % 0 lf 1012,1 hPa 0,0 l/m 0 min 0 min 0 W/m 12,6 km/h (3 Bft) 96,77 %
19.07.2017 01:44 21,2 C 20,6 C 18,3 C 70 % 0 lf 1012,1 hPa 0,0 l/m 0 min 0 min 0 W/m 10,5 km/h (2 Bft) 91,30 %
19.07.2017 01:46 21,2 C 20,6 C 18,3 C 70 % 0 lf 1012,1 hPa 0,0 l/m 0 min 0 min 0 W/m 10,5 km/h (2 Bft) 97,87 %
19.07.2017 01:48 21,1 C 20,6 C 18,3 C 70 % 0 lf 1012,1 hPa 0,0 l/m 0 min 0 min 0 W/m 10,5 km/h (2 Bft) 97,87 %
19.07.2017 01:50 21,1 C 20,6 C 18,3 C 70 % 0 lf 1012,0 hPa 0,0 l/m 0 min 0 min 0 W/m 8,4 km/h (2 Bft) 97,87 %
19.07.2017 01:52 21,1 C 20,6 C 18,3 C 70 % 0 lf 1012,0 hPa 0,0 l/m 0 min 0 min 0 W/m 12,6 km/h (3 Bft) 100,00 %
19.07.2017 01:54 21,1 C 20,6 C 18,3 C 70 % 0 lf 1012,0 hPa 0,0 l/m 0 min 0 min 0 W/m 12,6 km/h (3 Bft) 97,87 %
19.07.2017 01:56 21,0 C 20,6 C 18,3 C 70 % 0 lf 1012,0 hPa 0,0 l/m 0 min 0 min 0 W/m 6,3 km/h (2 Bft) 97,87 %
19.07.2017 01:58 21,0 C 20,0 C 18,3 C 71 % 0 lf 1012,0 hPa 0,0 l/m 0 min 0 min 0 W/m 4,2 km/h (1 Bft) 95,74 %
19.07.2017 02:00 21,0 C 20,0 C 18,3 C 71 % 0 lf 1012,0 hPa 0,0 l/m 0 min 0 min 0 W/m 6,3 km/h (2 Bft) 93,62 %
19.07.2017 02:02 21,0 C 20,0 C 17,8 C 71 % 0 lf 1012,0 hPa 0,0 l/m 0 min 0 min 0 W/m 6,3 km/h (2 Bft) 97,87 %
19.07.2017 02:04 20,9 C 20,0 C 17,8 C 71 % 0 lf 1012,0 hPa 0,0 l/m 0 min 0 min 0 W/m 6,3 km/h (2 Bft) 95,74 %
19.07.2017 02:06 20,9 C 20,0 C 17,8 C 71 % 0 lf 1011,9 hPa 0,0 l/m 0 min 0 min 5 W/m 6,3 km/h (2 Bft) 97,92 %
19.07.2017 02:08 20,9 C 20,0 C 17,8 C 71 % 0 lf 1011,9 hPa 0,0 l/m 0 min 0 min 3 W/m 10,5 km/h (2 Bft) 100,00 %
19.07.2017 02:10 20,9 C 20,0 C 17,8 C 71 % 0 lf 1011,8 hPa 0,0 l/m 0 min 0 min 0 W/m 10,5 km/h (2 Bft) 100,00 %
19.07.2017 02:12 20,9 C 20,0 C 17,8 C 71 % 0 lf 1011,8 hPa 0,0 l/m 0 min 0 min 0 W/m 6,3 km/h (2 Bft) 100,00 %
19.07.2017 02:14 20,8 C 20,0 C 17,8 C 71 % 0 lf 1011,8 hPa 0,0 l/m 0 min 0 min 5 W/m 6,3 km/h (2 Bft) 100,00 %
19.07.2017 02:16 20,8 C 20,0 C 17,8 C 72 % 0 lf 1011,8 hPa 0,0 l/m 0 min 0 min 3 W/m 10,5 km/h (2 Bft) 100,00 %
19.07.2017 02:18 20,8 C 20,0 C 17,8 C 72 % 0 lf 1011,8 hPa 0,0 l/m 0 min 0 min 5 W/m 12,6 km/h (3 Bft) 100,00 %
19.07.2017 02:20 20,7 C 20,0 C 17,8 C 72 % 0 lf 1011,7 hPa 0,0 l/m 0 min 0 min 5 W/m 10,5 km/h (2 Bft) 100,00 %
19.07.2017 02:22 20,7 C 20,0 C 17,8 C 72 % 0 lf 1011,7 hPa 0,0 l/m 0 min 0 min 0 W/m 10,5 km/h (2 Bft) 100,00 %
19.07.2017 02:24 20,7 C 20,0 C 17,8 C 72 % 0 lf 1011,6 hPa 0,0 l/m 0 min 0 min 5 W/m 12,6 km/h (3 Bft) 97,83 %
19.07.2017 02:26 20,7 C 20,0 C 17,8 C 72 % 0 lf 1011,7 hPa 0,0 l/m 0 min 0 min 0 W/m 10,5 km/h (2 Bft) 100,00 %
19.07.2017 02:28 20,6 C 20,0 C 17,8 C 72 % 0 lf 1011,6 hPa 0,0 l/m 0 min 0 min 0 W/m 10,5 km/h (2 Bft) 97,87 %
19.07.2017 02:30 20,6 C 20,0 C 17,8 C 72 % 0 lf 1011,6 hPa 0,0 l/m 0 min 0 min 0 W/m 4,2 km/h (1 Bft) 97,87 %
19.07.2017 02:32 20,6 C 20,0 C 17,8 C 73 % 0 lf 1011,6 hPa 0,0 l/m 0 min 0 min 0 W/m 6,3 km/h (2 Bft) 100,00 %
19.07.2017 02:34 20,6 C 19,4 C 17,8 C 73 % 0 lf 1011,6 hPa 0,0 l/m 0 min 0 min 0 W/m 6,3 km/h (2 Bft) 96,00 %
19.07.2017 02:36 20,6 C 19,4 C 17,8 C 73 % 0 lf 1011,6 hPa 0,0 l/m 0 min 0 min 0 W/m 6,3 km/h (2 Bft) 100,00 %
19.07.2017 02:38 20,5 C 19,4 C 17,8 C 73 % 0 lf 1011,6 hPa 0,0 l/m 0 min 0 min 0 W/m 6,3 km/h (2 Bft) 97,87 %
19.07.2017 02:40 20,5 C 19,4 C 17,8 C 73 % 0 lf 1011,5 hPa 0,0 l/m 0 min 0 min 0 W/m 6,3 km/h (2 Bft) 97,87 %
19.07.2017 02:42 20,5 C 19,4 C 17,8 C 73 % 0 lf 1011,5 hPa 0,0 l/m 0 min 0 min 0 W/m 6,3 km/h (2 Bft) 100,00 %
19.07.2017 02:44 20,4 C 19,4 C 17,2 C 73 % 0 lf 1011,4 hPa 0,0 l/m 0 min 0 min 0 W/m 10,5 km/h (2 Bft) 97,87 %
19.07.2017 02:46 20,4 C 19,4 C 17,2 C 73 % 0 lf 1011,5 hPa 0,0 l/m 0 min 0 min 0 W/m 6,3 km/h (2 Bft) 100,00 %
19.07.2017 02:48 20,4 C 19,4 C 17,2 C 73 % 0 lf 1011,4 hPa 0,0 l/m 0 min 0 min 5 W/m 6,3 km/h (2 Bft) 100,00 %
19.07.2017 02:50 20,4 C 19,4 C 17,2 C 73 % 0 lf 1011,4 hPa 0,0 l/m 0 min 0 min 1 W/m 10,5 km/h (2 Bft) 97,87 %
19.07.2017 02:52 20,3 C 19,4 C 17,2 C 73 % 0 lf 1011,5 hPa 0,0 l/m 0 min 0 min 0 W/m 10,5 km/h (2 Bft) 100,00 %
19.07.2017 02:54 20,3 C 19,4 C 17,2 C 74 % 0 lf 1011,4 hPa 0,0 l/m 0 min 0 min 1 W/m 10,5 km/h (2 Bft) 100,00 %
19.07.2017 02:56 20,3 C 19,4 C 17,2 C 74 % 0 lf 1011,4 hPa 0,0 l/m 0 min 0 min 1 W/m 4,2 km/h (1 Bft) 100,00 %
19.07.2017 02:58 20,3 C 19,4 C 17,2 C 74 % 0 lf 1011,4 hPa 0,0 l/m 0 min 0 min 0 W/m 6,3 km/h (2 Bft) 97,83 %
19.07.2017 03:00 20,2 C 19,4 C 17,2 C 74 % 0 lf 1011,4 hPa 0,0 l/m 0 min 0 min 0 W/m 6,3 km/h (2 Bft) 100,00 %
19.07.2017 03:02 20,2 C 19,4 C 17,2 C 74 % 0 lf 1011,4 hPa 0,0 l/m 0 min 0 min 0 W/m 6,3 km/h (2 Bft) 95,74 %
19.07.2017 03:04 20,2 C 18,9 C 17,2 C 74 % 0 lf 1011,4 hPa 0,0 l/m 0 min 0 min 0 W/m 6,3 km/h (2 Bft) 100,00 %
19.07.2017 03:06 20,2 C 18,9 C 17,2 C 74 % 0 lf 1011,4 hPa 0,0 l/m 0 min 0 min 0 W/m 6,3 km/h (2 Bft) 97,62 %
19.07.2017 03:08 20,2 C 18,9 C 17,2 C 75 % 0 lf 1011,4 hPa 0,0 l/m 0 min 0 min 0 W/m 6,3 km/h (2 Bft) 100,00 %
19.07.2017 03:10 20,1 C 18,9 C 16,7 C 75 % 0 lf 1011,4 hPa 0,0 l/m 0 min 0 min 0 W/m 4,2 km/h (1 Bft) 95,74 %
19.07.2017 03:12 20,1 C 18,9 C 16,7 C 75 % 0 lf 1011,4 hPa 0,0 l/m 0 min 0 min 0 W/m 4,2 km/h (1 Bft) 100,00 %
19.07.2017 03:14 20,1 C 18,9 C 16,7 C 75 % 0 lf 1011,4 hPa 0,0 l/m 0 min 0 min 0 W/m 4,2 km/h (1 Bft) 97,87 %
19.07.2017 03:16 20,1 C 18,9 C 16,7 C 75 % 0 lf 1011,3 hPa 0,0 l/m 0 min 0 min 0 W/m 4,2 km/h (1 Bft) 97,87 %
19.07.2017 03:18 20,0 C 18,9 C 16,7 C 75 % 0 lf 1011,2 hPa 0,0 l/m 0 min 0 min 0 W/m 2,1 km/h (1 Bft) 97,87 %
19.07.2017 03:20 20,0 C 18,9 C 16,7 C 75 % 0 lf 1011,3 hPa 0,0 l/m 0 min 0 min 0 W/m 6,3 km/h (2 Bft) 95,74 %
19.07.2017 03:22 19,9 C 18,9 C 16,7 C 75 % 0 lf 1011,3 hPa 0,0 l/m 0 min 0 min 0 W/m 6,3 km/h (2 Bft) 95,74 %
19.07.2017 03:24 19,9 C 18,9 C 16,7 C 76 % 0 lf 1011,3 hPa 0,0 l/m 0 min 0 min 0 W/m 4,2 km/h (1 Bft) 91,30 %
19.07.2017 03:26 19,9 C 18,9 C 16,7 C 76 % 0 lf 1011,2 hPa 0,0 l/m 0 min 0 min 0 W/m 2,1 km/h (1 Bft) 97,87 %
19.07.2017 03:28 19,9 C 18,9 C 16,7 C 76 % 0 lf 1011,2 hPa 0,0 l/m 0 min 0 min 0 W/m 2,1 km/h (1 Bft) 93,62 %
19.07.2017 03:30 19,9 C 18,9 C 16,7 C 76 % 0 lf 1011,2 hPa 0,0 l/m 0 min 0 min 0 W/m 2,1 km/h (1 Bft) 95,74 %
19.07.2017 03:32 19,8 C 18,9 C 16,7 C 76 % 0 lf 1011,2 hPa 0,0 l/m 0 min 0 min 0 W/m 0,0 km/h (0 Bft) 95,74 %
19.07.2017 03:34 19,8 C 18,9 C 16,7 C 76 % 0 lf 1011,2 hPa 0,0 l/m 0 min 0 min 0 W/m 0,0 km/h (0 Bft) 93,62 %
19.07.2017 03:36 19,8 C 18,9 C 16,7 C 77 % 0 lf 1011,2 hPa 0,0 l/m 0 min 0 min 0 W/m 4,2 km/h (1 Bft) 95,92 %
19.07.2017 03:38 19,8 C 18,9 C 16,7 C 77 % 0 lf 1011,1 hPa 0,0 l/m 0 min 0 min 0 W/m 6,3 km/h (2 Bft) 95,74 %
19.07.2017 03:40 19,7 C 18,9 C 16,7 C 77 % 0 lf 1011,1 hPa 0,0 l/m 0 min 0 min 0 W/m 4,2 km/h (1 Bft) 91,49 %
19.07.2017 03:42 19,7 C 18,9 C 16,7 C 77 % 0 lf 1011,2 hPa 0,0 l/m 0 min 0 min 0 W/m 6,3 km/h (2 Bft) 91,67 %
19.07.2017 03:44 19,7 C 18,9 C 16,7 C 77 % 0 lf 1011,1 hPa 0,0 l/m 0 min 0 min 0 W/m 6,3 km/h (2 Bft) 91,49 %
19.07.2017 03:46 19,6 C 18,3 C 16,7 C 77 % 0 lf 1011,1 hPa 0,0 l/m 0 min 0 min 0 W/m 2,1 km/h (1 Bft) 91,49 %
19.07.2017 03:48 19,6 C 18,3 C 16,7 C 77 % 0 lf 1011,1 hPa 0,0 l/m 0 min 0 min 0 W/m 4,2 km/h (1 Bft) 93,48 %
19.07.2017 03:50 19,6 C 18,3 C 16,7 C 77 % 0 lf 1011,1 hPa 0,0 l/m 0 min 0 min 0 W/m 4,2 km/h (1 Bft) 89,36 %
19.07.2017 03:52 19,6 C 18,3 C 16,7 C 77 % 0 lf 1011,1 hPa 0,0 l/m 0 min 0 min 0 W/m 2,1 km/h (1 Bft) 93,62 %
19.07.2017 03:54 19,5 C 18,3 C 16,7 C 77 % 0 lf 1011,0 hPa 0,0 l/m 0 min 0 min 0 W/m 4,2 km/h (1 Bft) 93,62 %
19.07.2017 03:56 19,5 C 18,3 C 16,1 C 77 % 0 lf 1011,0 hPa 0,0 l/m 0 min 0 min 0 W/m 6,3 km/h (2 Bft) 93,62 %
19.07.2017 03:58 19,4 C 18,3 C 16,7 C 77 % 0 lf 1011,0 hPa 0,0 l/m 0 min 0 min 0 W/m 6,3 km/h (2 Bft) 91,30 %
19.07.2017 04:00 19,4 C 18,3 C 16,1 C 78 % 0 lf 1011,0 hPa 0,0 l/m 0 min 0 min 0 W/m 4,2 km/h (1 Bft) 93,62 %
19.07.2017 04:02 19,4 C 18,3 C 16,1 C 78 % 0 lf 1010,9 hPa 0,0 l/m 0 min 0 min 0 W/m 4,2 km/h (1 Bft) 100,00 %
19.07.2017 04:04 19,4 C 18,3 C 16,1 C 78 % 0 lf 1010,9 hPa 0,0 l/m 0 min 0 min 0 W/m 6,3 km/h (2 Bft) 93,62 %
19.07.2017 04:06 19,3 C 18,3 C 16,1 C 78 % 0 lf 1010,9 hPa 0,0 l/m 0 min 0 min 0 W/m 6,3 km/h (2 Bft) 91,43 %
19.07.2017 04:08 19,3 C 18,3 C 16,1 C 78 % 0 lf 1010,9 hPa 0,0 l/m 0 min 0 min 0 W/m 4,2 km/h (1 Bft) 95,74 %
19.07.2017 04:10 19,3 C 18,3 C 16,1 C 79 % 0 lf 1010,9 hPa 0,0 l/m 0 min 0 min 0 W/m 6,3 km/h (2 Bft) 95,74 %
19.07.2017 04:12 19,3 C 18,9 C 16,7 C 79 % 0 lf 1010,8 hPa 0,0 l/m 0 min 0 min 0 W/m 8,4 km/h (2 Bft) 95,65 %
19.07.2017 04:14 19,3 C 18,3 C 16,7 C 79 % 0 lf 1010,8 hPa 0,0 l/m 0 min 0 min 0 W/m 6,3 km/h (2 Bft) 93,62 %
19.07.2017 04:16 19,2 C 18,3 C 16,7 C 79 % 0 lf 1010,8 hPa 0,0 l/m 0 min 0 min 0 W/m 8,4 km/h (2 Bft) 95,74 %
19.07.2017 04:18 19,2 C 18,3 C 16,7 C 79 % 0 lf 1010,9 hPa 0,0 l/m 0 min 0 min 0 W/m 6,3 km/h (2 Bft) 93,62 %
19.07.2017 04:20 19,2 C 18,9 C 16,7 C 79 % 0 lf 1010,8 hPa 0,0 l/m 0 min 0 min 2 W/m 8,4 km/h (2 Bft) 95,74 %
19.07.2017 04:22 19,2 C 18,9 C 16,7 C 80 % 0 lf 1010,8 hPa 0,0 l/m 0 min 0 min 0 W/m 6,3 km/h (2 Bft) 95,74 %
19.07.2017 04:24 19,2 C 18,9 C 16,7 C 80 % 0 lf 1010,8 hPa 0,0 l/m 0 min 0 min 4 W/m 6,3 km/h (2 Bft) 95,65 %
19.07.2017 04:26 19,2 C 18,9 C 16,7 C 80 % 0 lf 1010,7 hPa 0,0 l/m 0 min 0 min 5 W/m 6,3 km/h (2 Bft) 91,49 %
19.07.2017 04:28 19,2 C 18,9 C 16,7 C 80 % 0 lf 1010,7 hPa 0,0 l/m 0 min 0 min 0 W/m 10,5 km/h (2 Bft) 93,62 %
19.07.2017 04:30 19,1 C 18,9 C 16,7 C 80 % 0 lf 1010,7 hPa 0,0 l/m 0 min 0 min 0 W/m 10,5 km/h (2 Bft) 97,87 %
19.07.2017 04:32 19,1 C 18,9 C 17,2 C 80 % 0 lf 1010,7 hPa 0,0 l/m 0 min 0 min 0 W/m 8,4 km/h (2 Bft) 97,87 %
19.07.2017 04:34 19,1 C 18,9 C 17,2 C 81 % 0 lf 1010,7 hPa 0,0 l/m 0 min 0 min 0 W/m 10,5 km/h (2 Bft) 97,87 %
19.07.2017 04:36 19,1 C 18,9 C 17,2 C 81 % 0 lf 1010,6 hPa 0,0 l/m 0 min 0 min 0 W/m 6,3 km/h (2 Bft) 98,15 %
19.07.2017 04:38 19,1 C 18,9 C 17,2 C 81 % 0 lf 1010,6 hPa 0,0 l/m 0 min 0 min 0 W/m 6,3 km/h (2 Bft) 95,74 %
19.07.2017 04:40 19,1 C 18,9 C 17,2 C 81 % 0 lf 1010,5 hPa 0,0 l/m 0 min 0 min 0 W/m 6,3 km/h (2 Bft) 97,87 %
19.07.2017 04:42 19,1 C 18,9 C 17,2 C 81 % 0 lf 1010,5 hPa 0,0 l/m 0 min 0 min 0 W/m 6,3 km/h (2 Bft) 97,92 %
19.07.2017 04:44 19,1 C 18,9 C 17,2 C 81 % 0 lf 1010,5 hPa 0,0 l/m 0 min 0 min 0 W/m 6,3 km/h (2 Bft) 95,74 %
19.07.2017 04:46 19,1 C 18,9 C 17,2 C 81 % 0 lf 1010,6 hPa 0,0 l/m 0 min 0 min 0 W/m 4,2 km/h (1 Bft) 95,65 %
19.07.2017 04:48 19,1 C 18,9 C 17,2 C 81 % 0 lf 1010,6 hPa 0,0 l/m 0 min 0 min 0 W/m 4,2 km/h (1 Bft) 93,62 %
19.07.2017 04:50 19,1 C 18,9 C 17,2 C 81 % 0 lf 1010,6 hPa 0,0 l/m 0 min 0 min 0 W/m 4,2 km/h (1 Bft) 97,87 %
19.07.2017 04:52 19,1 C 18,9 C 17,2 C 81 % 0 lf 1010,6 hPa 0,0 l/m 0 min 0 min 0 W/m 6,3 km/h (2 Bft) 97,87 %
19.07.2017 04:54 19,1 C 18,9 C 17,2 C 82 % 0 lf 1010,5 hPa 0,0 l/m 0 min 0 min 0 W/m 8,4 km/h (2 Bft) 95,74 %
19.07.2017 04:56 19,1 C 18,9 C 17,2 C 82 % 0 lf 1010,5 hPa 0,0 l/m 0 min 0 min 0 W/m 4,2 km/h (1 Bft) 93,62 %
19.07.2017 04:58 19,1 C 18,9 C 17,2 C 82 % 0 lf 1010,5 hPa 0,0 l/m 0 min 0 min 0 W/m 6,3 km/h (2 Bft) 95,65 %
19.07.2017 05:00 19,1 C 18,9 C 17,2 C 82 % 0 lf 1010,5 hPa 0,0 l/m 0 min 0 min 0 W/m 2,1 km/h (1 Bft) 100,00 %
19.07.2017 05:02 19,1 C 18,9 C 17,2 C 82 % 0 lf 1010,6 hPa 0,0 l/m 0 min 0 min 0 W/m 6,3 km/h (2 Bft) 100,00 %
19.07.2017 05:04 19,1 C 18,9 C 17,2 C 82 % 0 lf 1010,5 hPa 0,0 l/m 0 min 0 min 0 W/m 8,4 km/h (2 Bft) 100,00 %
19.07.2017 05:06 19,1 C 18,9 C 17,2 C 82 % 0 lf 1010,5 hPa 0,0 l/m 0 min 0 min 0 W/m 8,4 km/h (2 Bft) 97,96 %
19.07.2017 05:08 19,1 C 18,9 C 17,2 C 82 % 0 lf 1010,4 hPa 0,0 l/m 0 min 0 min 0 W/m 4,2 km/h (1 Bft) 97,83 %
19.07.2017 05:10 19,1 C 18,9 C 17,2 C 82 % 0 lf 1010,4 hPa 0,0 l/m 0 min 0 min 0 W/m 4,2 km/h (1 Bft) 97,87 %
19.07.2017 05:12 19,1 C 18,9 C 17,2 C 82 % 0 lf 1010,4 hPa 0,0 l/m 0 min 0 min 0 W/m 4,2 km/h (1 Bft) 100,00 %
19.07.2017 05:14 19,1 C 18,9 C 16,7 C 82 % 0 lf 1010,4 hPa 0,0 l/m 0 min 0 min 0 W/m 4,2 km/h (1 Bft) 100,00 %
19.07.2017 05:16 19,1 C 18,9 C 16,7 C 82 % 0 lf 1010,4 hPa 0,0 l/m 0 min 0 min 0 W/m 6,3 km/h (2 Bft) 100,00 %
19.07.2017 05:18 19,1 C 18,9 C 16,7 C 82 % 0 lf 1010,4 hPa 0,0 l/m 0 min 0 min 0 W/m 4,2 km/h (1 Bft) 95,65 %
19.07.2017 05:20 19,1 C 18,9 C 16,7 C 82 % 0 lf 1010,3 hPa 0,0 l/m 0 min 0 min 0 W/m 6,3 km/h (2 Bft) 100,00 %
19.07.2017 05:22 19,1 C 18,9 C 16,7 C 83 % 0 lf 1010,4 hPa 0,0 l/m 0 min 0 min 2 W/m 4,2 km/h (1 Bft) 100,00 %
19.07.2017 05:24 19,1 C 18,9 C 16,7 C 83 % 0 lf 1010,4 hPa 0,0 l/m 0 min 0 min 5 W/m 4,2 km/h (1 Bft) 97,87 %
19.07.2017 05:26 19,2 C 18,9 C 16,7 C 83 % 0 lf 1010,3 hPa 0,0 l/m 0 min 0 min 5 W/m 4,2 km/h (1 Bft) 100,00 %
19.07.2017 05:28 19,2 C 18,9 C 16,7 C 83 % 0 lf 1010,3 hPa 0,0 l/m 0 min 0 min 5 W/m 6,3 km/h (2 Bft) 95,74 %
19.07.2017 05:30 19,1 C 18,9 C 16,7 C 83 % 0 lf 1010,4 hPa 0,0 l/m 0 min 0 min 7 W/m 6,3 km/h (2 Bft) 100,00 %
19.07.2017 05:32 19,1 C 18,9 C 16,7 C 83 % 0 lf 1010,4 hPa 0,0 l/m 0 min 0 min 8 W/m 6,3 km/h (2 Bft) 97,87 %
19.07.2017 05:34 19,1 C 18,9 C 16,7 C 83 % 0 lf 1010,3 hPa 0,0 l/m 0 min 0 min 9 W/m 6,3 km/h (2 Bft) 95,74 %
19.07.2017 05:36 19,1 C 18,9 C 16,7 C 83 % 0 lf 1010,3 hPa 0,0 l/m 0 min 0 min 9 W/m 6,3 km/h (2 Bft) 97,14 %
19.07.2017 05:38 19,1 C 18,3 C 16,7 C 83 % 0 lf 1010,3 hPa 0,0 l/m 0 min 0 min 9 W/m 8,4 km/h (2 Bft) 97,87 %
19.07.2017 05:40 19,1 C 18,9 C 16,7 C 83 % 0 lf 1010,3 hPa 0,0 l/m 0 min 0 min 11 W/m 6,3 km/h (2 Bft) 97,87 %
19.07.2017 05:42 19,1 C 18,9 C 16,7 C 83 % 0 lf 1010,4 hPa 0,0 l/m 0 min 0 min 11 W/m 6,3 km/h (2 Bft) 98,11 %
19.07.2017 05:44 19,1 C 18,9 C 16,7 C 83 % 0 lf 1010,4 hPa 0,0 l/m 0 min 0 min 12 W/m 10,5 km/h (2 Bft) 97,87 %
19.07.2017 05:46 19,1 C 18,9 C 16,7 C 84 % 0 lf 1010,4 hPa 0,0 l/m 0 min 0 min 12 W/m 8,4 km/h (2 Bft) 95,65 %
19.07.2017 05:48 19,1 C 18,9 C 16,7 C 83 % 0 lf 1010,4 hPa 0,0 l/m 0 min 0 min 12 W/m 8,4 km/h (2 Bft) 95,74 %
19.07.2017 05:50 19,1 C 18,9 C 16,7 C 84 % 0 lf 1010,4 hPa 0,0 l/m 0 min 0 min 13 W/m 8,4 km/h (2 Bft) 98,04 %
19.07.2017 05:52 19,1 C 18,9 C 16,7 C 84 % 0 lf 1010,3 hPa 0,0 l/m 0 min 0 min 14 W/m 10,5 km/h (2 Bft) 97,96 %
19.07.2017 05:54 19,1 C 18,9 C 17,2 C 84 % 0 lf 1010,3 hPa 0,0 l/m 0 min 0 min 15 W/m 10,5 km/h (2 Bft) 97,83 %
19.07.2017 05:56 19,1 C 18,9 C 17,2 C 84 % 0 lf 1010,3 hPa 0,0 l/m 0 min 0 min 17 W/m 10,5 km/h (2 Bft) 97,87 %
19.07.2017 05:58 19,1 C 18,9 C 17,2 C 85 % 0 lf 1010,3 hPa 0,0 l/m 0 min 0 min 18 W/m 16,7 km/h (3 Bft) 97,87 %
19.07.2017 06:00 19,1 C 19,4 C 17,2 C 85 % 0 lf 1010,3 hPa 0,0 l/m 0 min 0 min 19 W/m 12,6 km/h (3 Bft) 97,87 %
19.07.2017 06:02 19,1 C 19,4 C 17,8 C 85 % 0 lf 1010,3 hPa 0,0 l/m 2 min 0 min 21 W/m 10,5 km/h (2 Bft) 95,24 %
19.07.2017 06:04 19,2 C 19,4 C 17,8 C 85 % 0 lf 1010,2 hPa 0,0 l/m 2 min 0 min 22 W/m 10,5 km/h (2 Bft) 95,74 %
19.07.2017 06:06 19,2 C 19,4 C 17,8 C 85 % 0 lf 1010,2 hPa 0,0 l/m 2 min 0 min 23 W/m 12,6 km/h (3 Bft) 94,00 %
19.07.2017 06:10 19,2 C 19,4 C 17,8 C 85 % 0 lf 1010,2 hPa 0,0 l/m 0 min 0 min 25 W/m 14,6 km/h (3 Bft) 95,79 %
19.07.2017 06:12 19,2 C 19,4 C 17,8 C 86 % 0 lf 1010,1 hPa 0,0 l/m 0 min 0 min 26 W/m 10,5 km/h (2 Bft) 97,87 %
19.07.2017 06:14 19,2 C 20,0 C 17,8 C 86 % 0 lf 1010,2 hPa 0,0 l/m 0 min 0 min 28 W/m 12,6 km/h (3 Bft) 97,87 %
19.07.2017 06:16 19,3 C 20,0 C 18,3 C 86 % 0 lf 1010,2 hPa 0,0 l/m 0 min 0 min 30 W/m 16,7 km/h (3 Bft) 95,65 %
19.07.2017 06:18 19,3 C 20,0 C 18,3 C 86 % 0 lf 1010,2 hPa 0,0 l/m 0 min 0 min 33 W/m 10,5 km/h (2 Bft) 95,74 %
19.07.2017 06:20 19,4 C 20,0 C 18,3 C 85 % 0 lf 1010,1 hPa 0,0 l/m 2 min 0 min 39 W/m 10,5 km/h (2 Bft) 97,87 %
19.07.2017 06:22 19,4 C 20,0 C 18,3 C 85 % 0 lf 1010,1 hPa 0,0 l/m 2 min 0 min 41 W/m 14,6 km/h (3 Bft) 97,87 %
19.07.2017 06:24 19,5 C 20,0 C 18,3 C 85 % 0 lf 1010,1 hPa 0,0 l/m 2 min 0 min 42 W/m 14,6 km/h (3 Bft) 95,74 %
19.07.2017 06:26 19,6 C 20,0 C 18,3 C 85 % 0 lf 1010,2 hPa 0,0 l/m 0 min 0 min 40 W/m 12,6 km/h (3 Bft) 95,74 %
19.07.2017 06:28 19,6 C 20,0 C 18,3 C 85 % 0 lf 1010,2 hPa 0,0 l/m 0 min 0 min 40 W/m 14,6 km/h (3 Bft) 95,65 %
19.07.2017 06:30 19,6 C 20,0 C 18,3 C 85 % 0 lf 1010,2 hPa 0,0 l/m 0 min 0 min 42 W/m 10,5 km/h (2 Bft) 97,87 %
19.07.2017 06:32 19,7 C 20,6 C 18,3 C 85 % 0 lf 1010,2 hPa 0,0 l/m 0 min 0 min 43 W/m 14,6 km/h (3 Bft) 97,87 %
19.07.2017 06:34 19,7 C 20,6 C 18,9 C 85 % 0 lf 1010,2 hPa 0,0 l/m 0 min 0 min 44 W/m 14,6 km/h (3 Bft) 95,74 %
19.07.2017 06:36 19,8 C 20,6 C 18,3 C 85 % 0 lf 1010,2 hPa 0,0 l/m 0 min 0 min 45 W/m 16,7 km/h (3 Bft) 97,56 %
19.07.2017 06:38 19,8 C 20,6 C 18,9 C 85 % 0 lf 1010,1 hPa 0,0 l/m 0 min 0 min 46 W/m 18,8 km/h (3 Bft) 95,74 %
19.07.2017 06:40 19,8 C 20,6 C 18,9 C 84 % 0 lf 1010,1 hPa 0,0 l/m 0 min 0 min 47 W/m 12,6 km/h (3 Bft) 93,62 %
19.07.2017 06:42 19,9 C 20,6 C 18,9 C 84 % 0 lf 1010,1 hPa 0,0 l/m 0 min 0 min 47 W/m 18,8 km/h (3 Bft) 95,83 %
19.07.2017 06:44 19,9 C 20,6 C 18,9 C 84 % 0 lf 1010,1 hPa 0,0 l/m 0 min 0 min 51 W/m 23,0 km/h (4 Bft) 93,48 %
19.07.2017 06:46 20,0 C 20,6 C 18,9 C 84 % 0 lf 1010,1 hPa 0,0 l/m 0 min 0 min 62 W/m 16,7 km/h (3 Bft) 93,62 %
19.07.2017 06:48 20,1 C 20,6 C 18,9 C 84 % 0 lf 1010,1 hPa 0,0 l/m 2 min 0 min 71 W/m 18,8 km/h (3 Bft) 95,74 %
19.07.2017 06:50 20,1 C 20,6 C 18,9 C 84 % 0 lf 1010,1 hPa 0,0 l/m 2 min 0 min 77 W/m 20,9 km/h (4 Bft) 97,87 %
19.07.2017 06:52 20,2 C 21,1 C 18,9 C 84 % 0 lf 1010,2 hPa 0,0 l/m 2 min 0 min 79 W/m 16,7 km/h (3 Bft) 97,87 %
19.07.2017 06:54 20,2 C 20,6 C 18,9 C 84 % 0 lf 1010,1 hPa 0,0 l/m 2 min 0 min 77 W/m 23,0 km/h (4 Bft) 97,87 %
19.07.2017 06:56 20,3 C 21,1 C 18,9 C 83 % 0 lf 1010,1 hPa 0,0 l/m 2 min 0 min 87 W/m 16,7 km/h (3 Bft) 97,83 %
19.07.2017 06:58 20,3 C 21,1 C 18,9 C 83 % 0 lf 1010,1 hPa 0,0 l/m 2 min 0 min 97 W/m 18,8 km/h (3 Bft) 91,49 %
19.07.2017 07:00 20,3 C 21,1 C 18,9 C 83 % 0 lf 1010,1 hPa 0,0 l/m 2 min 0 min 96 W/m 18,8 km/h (3 Bft) 95,74 %
19.07.2017 07:02 20,4 C 21,1 C 18,9 C 83 % 0 lf 1010,1 hPa 0,0 l/m 2 min 0 min 92 W/m 16,7 km/h (3 Bft) 95,83 %
19.07.2017 07:04 20,4 C 21,1 C 18,9 C 83 % 0 lf 1010,0 hPa 0,0 l/m 2 min 0 min 90 W/m 16,7 km/h (3 Bft) 97,87 %
19.07.2017 07:06 20,4 C 21,1 C 18,9 C 83 % 0 lf 1010,0 hPa 0,0 l/m 2 min 0 min 92 W/m 18,8 km/h (3 Bft) 97,83 %
19.07.2017 07:08 20,5 C 21,1 C 19,4 C 83 % 0 lf 1009,9 hPa 0,0 l/m 2 min 0 min 103 W/m 18,8 km/h (3 Bft) 97,87 %
19.07.2017 07:10 20,5 C 21,1 C 19,4 C 83 % 0 lf 1009,9 hPa 0,0 l/m 2 min 0 min 115 W/m 18,8 km/h (3 Bft) 95,74 %
19.07.2017 07:12 20,6 C 21,1 C 19,4 C 82 % 0 lf 1009,8 hPa 0,0 l/m 2 min 0 min 118 W/m 18,8 km/h (3 Bft) 97,92 %
19.07.2017 07:14 20,6 C 21,1 C 19,4 C 82 % 0 lf 1009,8 hPa 0,0 l/m 2 min 0 min 127 W/m 18,8 km/h (3 Bft) 97,87 %
19.07.2017 07:16 20,7 C 21,1 C 19,4 C 82 % 0 lf 1009,8 hPa 0,0 l/m 2 min 0 min 108 W/m 25,1 km/h (4 Bft) 97,87 %
19.07.2017 07:18 20,7 C 21,1 C 19,4 C 82 % 0 lf 1009,8 hPa 0,0 l/m 0 min 0 min 106 W/m 23,0 km/h (4 Bft) 95,65 %
19.07.2017 07:20 20,7 C 21,7 C 19,4 C 82 % 0 lf 1009,7 hPa 0,0 l/m 2 min 0 min 122 W/m 18,8 km/h (3 Bft) 97,87 %
19.07.2017 07:22 20,8 C 21,7 C 19,4 C 82 % 0 lf 1009,6 hPa 0,0 l/m 2 min 0 min 134 W/m 25,1 km/h (4 Bft) 95,74 %
19.07.2017 07:24 20,8 C 21,7 C 19,4 C 82 % 0 lf 1009,7 hPa 0,0 l/m 2 min 0 min 144 W/m 18,8 km/h (3 Bft) 97,87 %
19.07.2017 07:26 20,9 C 21,7 C 19,4 C 82 % 0 lf 1009,6 hPa 0,0 l/m 2 min 0 min 148 W/m 18,8 km/h (3 Bft) 95,74 %
19.07.2017 07:28 20,9 C 21,7 C 20,0 C 82 % 0 lf 1009,6 hPa 0,0 l/m 2 min 0 min 167 W/m 20,9 km/h (4 Bft) 100,00 %
19.07.2017 07:30 21,0 C 21,7 C 20,0 C 81 % 0 lf 1009,5 hPa 0,0 l/m 2 min 0 min 180 W/m 27,2 km/h (4 Bft) 97,83 %
19.07.2017 07:32 21,0 C 21,7 C 20,0 C 81 % 0 lf 1009,5 hPa 0,0 l/m 2 min 0 min 187 W/m 25,1 km/h (4 Bft) 97,92 %
19.07.2017 07:34 21,1 C 22,2 C 20,0 C 81 % 0 lf 1009,4 hPa 0,0 l/m 2 min 0 min 195 W/m 18,8 km/h (3 Bft) 95,74 %
19.07.2017 07:36 21,1 C 22,2 C 20,0 C 81 % 0 lf 1009,3 hPa 0,0 l/m 2 min 0 min 203 W/m 27,2 km/h (4 Bft) 91,84 %
19.07.2017 07:38 21,2 C 22,2 C 20,0 C 81 % 0 lf 1009,3 hPa 0,0 l/m 2 min 0 min 206 W/m 25,1 km/h (4 Bft) 91,49 %
19.07.2017 07:40 21,2 C 22,2 C 20,0 C 80 % 0 lf 1009,3 hPa 0,0 l/m 2 min 0 min 210 W/m 23,0 km/h (4 Bft) 95,65 %
19.07.2017 07:42 21,3 C 22,2 C 20,6 C 81 % 0 lf 1009,3 hPa 0,0 l/m 2 min 0 min 214 W/m 20,9 km/h (4 Bft) 97,87 %
19.07.2017 07:44 21,4 C 22,2 C 20,6 C 80 % 0 lf 1009,3 hPa 0,0 l/m 2 min 0 min 220 W/m 29,3 km/h (5 Bft) 95,74 %
19.07.2017 07:46 21,4 C 22,2 C 20,6 C 80 % 0 lf 1009,3 hPa 0,0 l/m 2 min 0 min 222 W/m 29,3 km/h (5 Bft) 95,74 %
19.07.2017 07:48 21,5 C 22,2 C 20,6 C 80 % 0 lf 1009,3 hPa 0,0 l/m 2 min 0 min 227 W/m 25,1 km/h (4 Bft) 95,74 %
19.07.2017 07:50 21,6 C 22,2 C 20,6 C 80 % 0 lf 1009,3 hPa 0,0 l/m 2 min 0 min 219 W/m 23,0 km/h (4 Bft) 89,36 %
19.07.2017 07:52 21,6 C 22,2 C 20,6 C 80 % 0 lf 1009,2 hPa 0,0 l/m 2 min 0 min 233 W/m 29,3 km/h (5 Bft) 93,48 %
19.07.2017 07:54 21,7 C 22,2 C 20,6 C 80 % 0 lf 1009,2 hPa 0,0 l/m 2 min 0 min 238 W/m 27,2 km/h (4 Bft) 95,74 %
19.07.2017 07:56 21,7 C 22,8 C 20,6 C 80 % 0 lf 1009,2 hPa 0,0 l/m 2 min 0 min 242 W/m 27,2 km/h (4 Bft) 95,74 %
19.07.2017 07:58 21,8 C 22,8 C 20,6 C 79 % 0 lf 1009,2 hPa 0,0 l/m 2 min 0 min 252 W/m 23,0 km/h (4 Bft) 93,62 %
19.07.2017 08:00 21,8 C 22,8 C 20,6 C 79 % 0 lf 1009,2 hPa 0,0 l/m 2 min 0 min 257 W/m 23,0 km/h (4 Bft) 95,74 %
19.07.2017 08:02 21,9 C 22,8 C 20,6 C 79 % 0 lf 1009,2 hPa 0,0 l/m 2 min 0 min 264 W/m 25,1 km/h (4 Bft) 95,65 %
19.07.2017 08:04 21,9 C 22,8 C 21,1 C 79 % 0 lf 1009,2 hPa 0,0 l/m 2 min 0 min 268 W/m 25,1 km/h (4 Bft) 95,74 %
19.07.2017 08:06 22,0 C 22,8 C 21,1 C 79 % 0 lf 1009,2 hPa 0,0 l/m 2 min 0 min 275 W/m 27,2 km/h (4 Bft) 97,56 %
19.07.2017 08:08 22,1 C 23,3 C 21,1 C 78 % 0 lf 1009,2 hPa 0,0 l/m 2 min 0 min 281 W/m 33,5 km/h (5 Bft) 89,36 %
19.07.2017 08:10 22,1 C 23,3 C 21,1 C 78 % 0 lf 1009,3 hPa 0,0 l/m 2 min 0 min 287 W/m 25,1 km/h (4 Bft) 93,62 %
19.07.2017 08:12 22,2 C 23,3 C 21,1 C 78 % 0 lf 1009,3 hPa 0,0 l/m 2 min 0 min 295 W/m 25,1 km/h (4 Bft) 97,87 %
19.07.2017 08:14 22,3 C 23,3 C 21,1 C 78 % 0 lf 1009,3 hPa 0,0 l/m 2 min 0 min 301 W/m 29,3 km/h (5 Bft) 97,87 %
19.07.2017 08:16 22,3 C 23,3 C 21,1 C 77 % 0 lf 1009,2 hPa 0,0 l/m 2 min 0 min 308 W/m 29,3 km/h (5 Bft) 97,87 %
19.07.2017 08:18 22,4 C 23,3 C 21,1 C 77 % 0 lf 1009,3 hPa 0,0 l/m 2 min 0 min 310 W/m 39,7 km/h (6 Bft) 97,83 %
19.07.2017 08:20 22,5 C 23,3 C 21,7 C 77 % 0 lf 1009,2 hPa 0,0 l/m 2 min 0 min 316 W/m 25,1 km/h (4 Bft) 96,08 %
19.07.2017 08:22 22,6 C 23,3 C 21,7 C 77 % 0 lf 1009,2 hPa 0,0 l/m 2 min 0 min 320 W/m 20,9 km/h (4 Bft) 97,96 %
19.07.2017 08:24 22,6 C 23,3 C 21,7 C 76 % 0 lf 1009,2 hPa 0,0 l/m 2 min 0 min 324 W/m 25,1 km/h (4 Bft) 95,74 %
19.07.2017 08:26 22,7 C 23,9 C 21,7 C 77 % 0 lf 1009,2 hPa 0,0 l/m 2 min 0 min 330 W/m 20,9 km/h (4 Bft) 91,30 %
19.07.2017 08:28 22,7 C 23,9 C 21,7 C 76 % 0 lf 1009,1 hPa 0,0 l/m 2 min 0 min 335 W/m 27,2 km/h (4 Bft) 100,00 %
19.07.2017 08:30 22,8 C 23,9 C 21,7 C 76 % 0 lf 1009,1 hPa 0,0 l/m 2 min 0 min 343 W/m 18,8 km/h (3 Bft) 97,87 %
19.07.2017 08:32 22,8 C 23,9 C 21,7 C 76 % 0 lf 1009,0 hPa 0,0 l/m 2 min 0 min 347 W/m 18,8 km/h (3 Bft) 97,87 %
19.07.2017 08:34 22,9 C 23,9 C 21,7 C 76 % 0 lf 1009,0 hPa 0,0 l/m 2 min 0 min 352 W/m 29,3 km/h (5 Bft) 97,87 %
19.07.2017 08:36 23,0 C 24,4 C 22,2 C 76 % 0 lf 1009,0 hPa 0,0 l/m 2 min 0 min 358 W/m 20,9 km/h (4 Bft) 100,00 %
19.07.2017 08:38 23,1 C 25,6 C 22,2 C 76 % 0 lf 1008,9 hPa 0,0 l/m 2 min 0 min 363 W/m 27,2 km/h (4 Bft) 100,00 %
19.07.2017 08:40 23,2 C 26,7 C 22,2 C 76 % 0 lf 1008,9 hPa 0,0 l/m 2 min 0 min 369 W/m 20,9 km/h (4 Bft) 100,00 %
19.07.2017 08:42 23,3 C 28,3 C 22,2 C 75 % 0 lf 1009,0 hPa 0,0 l/m 2 min 0 min 373 W/m 20,9 km/h (4 Bft) 95,74 %
19.07.2017 08:44 23,4 C 28,9 C 22,2 C 75 % 0 lf 1009,0 hPa 0,0 l/m 2 min 0 min 377 W/m 23,0 km/h (4 Bft) 97,87 %
19.07.2017 08:46 23,4 C 28,9 C 22,8 C 75 % 0 lf 1009,0 hPa 0,0 l/m 2 min 0 min 383 W/m 20,9 km/h (4 Bft) 95,74 %
19.07.2017 08:48 23,6 C 28,9 C 22,8 C 75 % 0 lf 1009,0 hPa 0,0 l/m 2 min 0 min 387 W/m 23,0 km/h (4 Bft) 97,87 %
19.07.2017 08:50 23,8 C 29,4 C 22,8 C 74 % 0 lf 1009,0 hPa 0,0 l/m 2 min 0 min 393 W/m 18,8 km/h (3 Bft) 97,87 %
19.07.2017 08:52 23,9 C 29,4 C 22,8 C 74 % 0 lf 1008,9 hPa 0,0 l/m 2 min 0 min 394 W/m 25,1 km/h (4 Bft) 97,83 %
19.07.2017 08:54 24,0 C 29,4 C 22,8 C 74 % 0 lf 1009,0 hPa 0,0 l/m 2 min 0 min 397 W/m 27,2 km/h (4 Bft) 97,87 %
19.07.2017 08:56 24,1 C 29,4 C 22,8 C 73 % 0 lf 1008,9 hPa 0,0 l/m 2 min 0 min 403 W/m 25,1 km/h (4 Bft) 95,74 %
19.07.2017 08:58 24,2 C 29,4 C 22,8 C 73 % 0 lf 1009,0 hPa 0,0 l/m 2 min 0 min 411 W/m 18,8 km/h (3 Bft) 95,74 %
19.07.2017 09:00 24,4 C 29,4 C 22,8 C 72 % 0 lf 1008,9 hPa 0,0 l/m 2 min 0 min 412 W/m 27,2 km/h (4 Bft) 95,74 %
19.07.2017 09:02 24,5 C 30,0 C 23,3 C 72 % 0 lf 1009,0 hPa 0,0 l/m 2 min 0 min 411 W/m 23,0 km/h (4 Bft) 97,92 %
19.07.2017 09:04 24,6 C 29,4 C 23,3 C 71 % 0 lf 1009,0 hPa 0,0 l/m 2 min 0 min 417 W/m 23,0 km/h (4 Bft) 95,65 %
19.07.2017 09:06 24,7 C 28,9 C 23,3 C 71 % 0 lf 1008,9 hPa 0,0 l/m 2 min 0 min 420 W/m 31,4 km/h (5 Bft) 98,00 %
19.07.2017 09:08 24,8 C 30,0 C 23,3 C 71 % 0 lf 1008,9 hPa 0,0 l/m 2 min 0 min 430 W/m 29,3 km/h (5 Bft) 97,87 %
19.07.2017 09:10 24,9 C 29,4 C 23,3 C 70 % 0 lf 1008,9 hPa 0,0 l/m 2 min 0 min 437 W/m 25,1 km/h (4 Bft) 97,87 %
19.07.2017 09:12 25,0 C 30,0 C 23,9 C 70 % 0 lf 1008,8 hPa 0,0 l/m 2 min 0 min 441 W/m 31,4 km/h (5 Bft) 97,87 %
19.07.2017 09:14 25,1 C 30,0 C 24,4 C 70 % 0 lf 1008,8 hPa 0,0 l/m 2 min 0 min 451 W/m 35,6 km/h (5 Bft) 95,74 %
19.07.2017 09:16 25,2 C 30,6 C 24,4 C 69 % 0 lf 1008,7 hPa 0,0 l/m 2 min 0 min 456 W/m 33,5 km/h (5 Bft) 97,83 %
19.07.2017 09:18 25,3 C 31,7 C 24,4 C 69 % 0 lf 1008,7 hPa 0,0 l/m 2 min 0 min 463 W/m 29,3 km/h (5 Bft) 97,87 %
19.07.2017 09:20 25,3 C 30,6 C 23,9 C 69 % 0 lf 1008,8 hPa 0,0 l/m 2 min 0 min 467 W/m 27,2 km/h (4 Bft) 95,74 %
19.07.2017 09:22 25,4 C 30,6 C 24,4 C 69 % 0 lf 1008,8 hPa 0,0 l/m 2 min 0 min 472 W/m 27,2 km/h (4 Bft) 97,87 %
19.07.2017 09:24 25,5 C 30,0 C 24,4 C 68 % 0 lf 1008,7 hPa 0,0 l/m 2 min 0 min 474 W/m 31,4 km/h (5 Bft) 97,87 %
19.07.2017 09:26 25,6 C 31,1 C 25,0 C 68 % 0 lf 1008,7 hPa 0,0 l/m 2 min 0 min 479 W/m 29,3 km/h (5 Bft) 100,00 %
19.07.2017 09:28 25,7 C 30,0 C 25,6 C 68 % 0 lf 1008,8 hPa 0,0 l/m 2 min 0 min 485 W/m 31,4 km/h (5 Bft) 95,74 %
19.07.2017 09:30 25,8 C 30,6 C 26,1 C 68 % 0 lf 1008,8 hPa 0,0 l/m 2 min 0 min 491 W/m 18,8 km/h (3 Bft) 100,00 %
19.07.2017 09:32 25,9 C 31,1 C 26,1 C 68 % 0 lf 1008,8 hPa 0,0 l/m 2 min 0 min 496 W/m 29,3 km/h (5 Bft) 95,83 %
19.07.2017 09:34 25,9 C 31,7 C 26,7 C 67 % 0 lf 1008,8 hPa 0,0 l/m 2 min 0 min 501 W/m 29,3 km/h (5 Bft) 97,87 %
19.07.2017 09:36 26,1 C 31,1 C 27,2 C 67 % 0 lf 1008,8 hPa 0,0 l/m 2 min 0 min 511 W/m 27,2 km/h (4 Bft) 95,65 %
19.07.2017 09:38 26,2 C 32,2 C 28,3 C 67 % 0 lf 1008,8 hPa 0,0 l/m 2 min 0 min 517 W/m 27,2 km/h (4 Bft) 97,87 %
19.07.2017 09:40 26,2 C 32,2 C 28,9 C 67 % 0 lf 1008,8 hPa 0,0 l/m 2 min 0 min 520 W/m 33,5 km/h (5 Bft) 97,87 %
19.07.2017 09:42 26,3 C 31,7 C 29,4 C 67 % 0 lf 1008,8 hPa 0,0 l/m 2 min 0 min 524 W/m 29,3 km/h (5 Bft) 95,74 %
19.07.2017 09:44 26,4 C 31,7 C 30,0 C 66 % 0 lf 1008,8 hPa 0,0 l/m 2 min 0 min 533 W/m 23,0 km/h (4 Bft) 97,87 %
19.07.2017 09:46 26,5 C 32,2 C 30,0 C 66 % 0 lf 1008,9 hPa 0,0 l/m 2 min 0 min 540 W/m 29,3 km/h (5 Bft) 97,87 %
19.07.2017 09:48 26,6 C 32,8 C 30,6 C 66 % 0 lf 1008,7 hPa 0,0 l/m 2 min 0 min 544 W/m 31,4 km/h (5 Bft) 93,48 %
19.07.2017 09:50 26,7 C 31,7 C 30,6 C 66 % 0 lf 1008,7 hPa 0,0 l/m 2 min 0 min 549 W/m 31,4 km/h (5 Bft) 93,62 %
19.07.2017 09:52 26,7 C 33,3 C 30,6 C 66 % 0 lf 1008,6 hPa 0,0 l/m 2 min 0 min 552 W/m 29,3 km/h (5 Bft) 91,49 %
19.07.2017 09:54 26,8 C 32,8 C 30,6 C 66 % 0 lf 1008,6 hPa 0,0 l/m 2 min 0 min 557 W/m 27,2 km/h (4 Bft) 95,74 %
19.07.2017 09:56 26,9 C 32,8 C 31,1 C 65 % 0 lf 1008,6 hPa 0,0 l/m 2 min 0 min 563 W/m 27,2 km/h (4 Bft) 95,74 %
19.07.2017 09:58 27,0 C 32,8 C 31,1 C 65 % 0 lf 1008,6 hPa 0,0 l/m 2 min 0 min 569 W/m 29,3 km/h (5 Bft) 95,74 %
19.07.2017 10:00 27,1 C 32,8 C 31,1 C 64 % 0 lf 1008,5 hPa 0,0 l/m 2 min 0 min 573 W/m 27,2 km/h (4 Bft) 95,65 %
19.07.2017 10:02 27,2 C 32,2 C 30,6 C 64 % 0 lf 1008,5 hPa 0,0 l/m 2 min 0 min 577 W/m 29,3 km/h (5 Bft) 93,62 %
19.07.2017 10:04 27,2 C 31,7 C 31,1 C 65 % 0 lf 1008,5 hPa 0,0 l/m 2 min 0 min 583 W/m 18,8 km/h (3 Bft) 95,74 %
19.07.2017 10:06 27,3 C 32,2 C 31,1 C 65 % 0 lf 1008,5 hPa 0,0 l/m 2 min 0 min 586 W/m 25,1 km/h (4 Bft) 95,24 %
19.07.2017 10:08 27,3 C 32,2 C 31,1 C 64 % 0 lf 1008,5 hPa 0,0 l/m 2 min 0 min 594 W/m 20,9 km/h (4 Bft) 95,74 %
19.07.2017 10:10 27,4 C 33,3 C 31,7 C 65 % 0 lf 1008,6 hPa 0,0 l/m 2 min 0 min 599 W/m 35,6 km/h (5 Bft) 95,74 %
19.07.2017 10:12 27,5 C 33,3 C 32,2 C 64 % 0 lf 1008,5 hPa 0,0 l/m 2 min 0 min 604 W/m 18,8 km/h (3 Bft) 95,74 %
19.07.2017 10:14 27,7 C 33,3 C 32,8 C 63 % 0 lf 1008,5 hPa 0,0 l/m 2 min 0 min 608 W/m 25,1 km/h (4 Bft) 95,65 %
19.07.2017 10:16 27,8 C 33,3 C 33,3 C 64 % 0 lf 1008,5 hPa 0,0 l/m 2 min 0 min 613 W/m 18,8 km/h (3 Bft) 95,74 %
19.07.2017 10:18 27,9 C 33,9 C 32,8 C 64 % 0 lf 1008,5 hPa 0,0 l/m 2 min 0 min 620 W/m 33,5 km/h (5 Bft) 97,87 %
19.07.2017 10:20 27,9 C 33,9 C 32,2 C 63 % 0 lf 1008,5 hPa 0,0 l/m 2 min 0 min 623 W/m 31,4 km/h (5 Bft) 97,87 %
19.07.2017 10:22 28,0 C 33,9 C 31,7 C 62 % 0 lf 1008,4 hPa 0,0 l/m 2 min 0 min 626 W/m 27,2 km/h (4 Bft) 95,74 %
19.07.2017 10:24 28,1 C 35,0 C 32,8 C 63 % 0 lf 1008,3 hPa 0,0 l/m 2 min 0 min 634 W/m 16,7 km/h (3 Bft) 97,87 %
19.07.2017 10:26 28,2 C 33,3 C 32,8 C 62 % 0 lf 1008,3 hPa 0,0 l/m 2 min 0 min 627 W/m 27,2 km/h (4 Bft) 97,83 %
19.07.2017 10:28 28,2 C 33,3 C 33,3 C 62 % 0 lf 1008,3 hPa 0,0 l/m 2 min 0 min 635 W/m 18,8 km/h (3 Bft) 93,62 %
19.07.2017 10:30 28,3 C 34,4 C 33,3 C 63 % 0 lf 1008,2 hPa 0,0 l/m 2 min 0 min 639 W/m 20,9 km/h (4 Bft) 95,74 %
19.07.2017 10:32 28,4 C 33,9 C 33,3 C 62 % 0 lf 1008,3 hPa 0,0 l/m 2 min 0 min 642 W/m 25,1 km/h (4 Bft) 95,83 %
19.07.2017 10:34 28,4 C 33,9 C 33,3 C 62 % 0 lf 1008,3 hPa 0,0 l/m 2 min 0 min 640 W/m 23,0 km/h (4 Bft) 95,74 %
19.07.2017 10:36 28,6 C 33,9 C 33,9 C 62 % 0 lf 1008,3 hPa 0,0 l/m 2 min 0 min 644 W/m 14,6 km/h (3 Bft) 98,00 %
19.07.2017 10:38 28,6 C 33,9 C 33,3 C 61 % 0 lf 1008,3 hPa 0,0 l/m 2 min 0 min 648 W/m 29,3 km/h (5 Bft) 97,83 %
19.07.2017 10:40 28,7 C 33,3 C 33,3 C 61 % 0 lf 1008,3 hPa 0,0 l/m 2 min 0 min 646 W/m 25,1 km/h (4 Bft) 95,74 %
19.07.2017 10:42 28,8 C 34,4 C 33,3 C 62 % 0 lf 1008,2 hPa 0,0 l/m 2 min 0 min 649 W/m 20,9 km/h (4 Bft) 100,00 %
19.07.2017 10:44 28,8 C 36,7 C 33,9 C 62 % 0 lf 1008,2 hPa 0,0 l/m 2 min 0 min 655 W/m 16,7 km/h (3 Bft) 97,87 %
19.07.2017 10:46 28,9 C 36,7 C 34,4 C 63 % 0 lf 1008,2 hPa 0,0 l/m 2 min 0 min 658 W/m 16,7 km/h (3 Bft) 97,83 %
19.07.2017 10:48 29,1 C 36,1 C 34,4 C 62 % 0 lf 1008,2 hPa 0,0 l/m 2 min 0 min 665 W/m 20,9 km/h (4 Bft) 97,87 %
19.07.2017 10:50 29,1 C 36,1 C 34,4 C 60 % 0 lf 1008,2 hPa 0,0 l/m 2 min 0 min 669 W/m 31,4 km/h (5 Bft) 97,87 %
19.07.2017 10:52 29,2 C 35,6 C 33,9 C 60 % 0 lf 1008,2 hPa 0,0 l/m 2 min 0 min 677 W/m 27,2 km/h (4 Bft) 97,87 %
19.07.2017 10:54 29,3 C 35,6 C 33,9 C 60 % 0 lf 1008,2 hPa 0,0 l/m 2 min 0 min 679 W/m 23,0 km/h (4 Bft) 97,87 %
19.07.2017 10:56 29,4 C 36,1 C 34,4 C 60 % 0 lf 1008,1 hPa 0,0 l/m 2 min 0 min 682 W/m 31,4 km/h (5 Bft) 97,87 %
19.07.2017 10:58 29,4 C 35,6 C 35,0 C 60 % 0 lf 1008,1 hPa 0,0 l/m 2 min 0 min 686 W/m 27,2 km/h (4 Bft) 95,65 %
19.07.2017 11:00 29,5 C 34,4 C 35,0 C 59 % 0 lf 1008,2 hPa 0,0 l/m 2 min 0 min 691 W/m 20,9 km/h (4 Bft) 97,87 %
19.07.2017 11:02 29,6 C 35,0 C 35,0 C 60 % 0 lf 1008,1 hPa 0,0 l/m 2 min 0 min 693 W/m 20,9 km/h (4 Bft) 95,74 %
19.07.2017 11:04 29,6 C 35,0 C 35,0 C 60 % 0 lf 1008,1 hPa 0,0 l/m 2 min 0 min 685 W/m 25,1 km/h (4 Bft) 97,87 %
19.07.2017 11:06 29,7 C 35,0 C 34,4 C 59 % 0 lf 1008,0 hPa 0,0 l/m 2 min 0 min 680 W/m 25,1 km/h (4 Bft) 100,00 %
19.07.2017 11:08 29,7 C 34,4 C 33,9 C 59 % 0 lf 1008,0 hPa 0,0 l/m 2 min 0 min 680 W/m 35,6 km/h (5 Bft) 95,74 %
19.07.2017 11:10 29,7 C 35,0 C 33,9 C 59 % 0 lf 1008,1 hPa 0,0 l/m 2 min 0 min 690 W/m 25,1 km/h (4 Bft) 97,87 %
19.07.2017 11:12 29,7 C 35,0 C 33,3 C 58 % 0 lf 1008,1 hPa 0,0 l/m 2 min 0 min 705 W/m 31,4 km/h (5 Bft) 95,74 %
19.07.2017 11:14 29,8 C 35,0 C 33,9 C 59 % 0 lf 1008,0 hPa 0,0 l/m 2 min 0 min 712 W/m 18,8 km/h (3 Bft) 97,83 %
19.07.2017 11:16 29,8 C 36,1 C 34,4 C 60 % 0 lf 1008,0 hPa 0,0 l/m 2 min 0 min 703 W/m 18,8 km/h (3 Bft) 89,36 %
19.07.2017 11:18 29,9 C 36,1 C 35,0 C 59 % 0 lf 1008,0 hPa 0,0 l/m 2 min 0 min 690 W/m 18,8 km/h (3 Bft) 95,74 %
19.07.2017 11:20 30,0 C 35,6 C 34,4 C 59 % 0 lf 1008,0 hPa 0,0 l/m 2 min 0 min 702 W/m 27,2 km/h (4 Bft) 95,74 %
19.07.2017 11:22 30,1 C 36,7 C 35,0 C 60 % 0 lf 1008,0 hPa 0,0 l/m 2 min 0 min 716 W/m 18,8 km/h (3 Bft) 93,62 %
19.07.2017 11:24 30,2 C 36,7 C 35,0 C 60 % 0 lf 1008,0 hPa 0,0 l/m 2 min 0 min 730 W/m 12,6 km/h (3 Bft) 95,65 %
19.07.2017 11:26 30,3 C 36,7 C 35,0 C 59 % 0 lf 1008,1 hPa 0,0 l/m 2 min 0 min 734 W/m 18,8 km/h (3 Bft) 95,74 %
19.07.2017 11:28 30,3 C 36,7 C 33,9 C 59 % 0 lf 1008,1 hPa 0,0 l/m 2 min 0 min 734 W/m 20,9 km/h (4 Bft) 95,74 %
19.07.2017 11:30 30,4 C 35,6 C 32,8 C 57 % 0 lf 1008,2 hPa 0,0 l/m 2 min 0 min 720 W/m 18,8 km/h (3 Bft) 93,62 %
19.07.2017 11:32 30,5 C 36,1 C 32,2 C 57 % 0 lf 1008,1 hPa 0,0 l/m 2 min 0 min 733 W/m 25,1 km/h (4 Bft) 93,75 %
19.07.2017 11:34 30,6 C 36,1 C 32,2 C 57 % 0 lf 1008,1 hPa 0,0 l/m 2 min 0 min 732 W/m 18,8 km/h (3 Bft) 95,74 %
19.07.2017 11:36 30,6 C 36,1 C 32,2 C 57 % 0 lf 1008,1 hPa 0,0 l/m 2 min 0 min 741 W/m 35,6 km/h (5 Bft) 95,92 %
19.07.2017 11:38 30,6 C 35,6 C 33,3 C 56 % 0 lf 1008,0 hPa 0,0 l/m 2 min 0 min 747 W/m 23,0 km/h (4 Bft) 93,62 %
19.07.2017 11:40 30,7 C 35,0 C 34,4 C 57 % 0 lf 1008,0 hPa 0,0 l/m 2 min 0 min 737 W/m 20,9 km/h (4 Bft) 93,62 %
19.07.2017 11:42 30,7 C 35,6 C 35,6 C 57 % 0 lf 1008,0 hPa 0,0 l/m 2 min 0 min 746 W/m 18,8 km/h (3 Bft) 93,62 %
19.07.2017 11:44 30,8 C 36,7 C 36,1 C 57 % 0 lf 1008,0 hPa 0,0 l/m 2 min 0 min 751 W/m 16,7 km/h (3 Bft) 89,36 %
19.07.2017 11:46 30,8 C 35,0 C 36,1 C 56 % 0 lf 1008,0 hPa 0,0 l/m 2 min 0 min 729 W/m 20,9 km/h (4 Bft) 93,62 %
19.07.2017 11:48 30,9 C 36,7 C 35,6 C 57 % 0 lf 1008,0 hPa 0,0 l/m 2 min 0 min 744 W/m 20,9 km/h (4 Bft) 93,48 %
19.07.2017 11:50 30,9 C 37,2 C 36,1 C 57 % 0 lf 1008,0 hPa 0,0 l/m 2 min 0 min 758 W/m 18,8 km/h (3 Bft) 91,49 %
19.07.2017 11:52 31,0 C 36,7 C 36,1 C 56 % 0 lf 1008,0 hPa 0,0 l/m 2 min 0 min 738 W/m 18,8 km/h (3 Bft) 95,74 %
19.07.2017 11:54 31,1 C 36,7 C 36,7 C 56 % 0 lf 1008,0 hPa 0,0 l/m 2 min 0 min 767 W/m 16,7 km/h (3 Bft) 95,74 %
19.07.2017 11:56 31,2 C 37,2 C 36,7 C 57 % 0 lf 1008,1 hPa 0,0 l/m 2 min 0 min 774 W/m 25,1 km/h (4 Bft) 93,62 %
19.07.2017 11:58 31,2 C 38,3 C 36,7 C 56 % 0 lf 1008,1 hPa 0,0 l/m 2 min 0 min 788 W/m 23,0 km/h (4 Bft) 97,83 %
19.07.2017 12:00 31,3 C 36,7 C 36,1 C 55 % 0 lf 1008,2 hPa 0,0 l/m 2 min 0 min 766 W/m 20,9 km/h (4 Bft) 97,87 %
19.07.2017 12:02 31,3 C 36,1 C 36,1 C 55 % 0 lf 1008,2 hPa 0,0 l/m 2 min 0 min 754 W/m 27,2 km/h (4 Bft) 95,83 %
19.07.2017 12:04 31,4 C 36,1 C 36,1 C 55 % 0 lf 1008,1 hPa 0,0 l/m 2 min 0 min 745 W/m 18,8 km/h (3 Bft) 97,87 %
19.07.2017 12:06 31,4 C 37,2 C 36,7 C 56 % 0 lf 1008,2 hPa 0,0 l/m 2 min 0 min 732 W/m 18,8 km/h (3 Bft) 95,74 %
19.07.2017 12:08 31,5 C 37,2 C 36,7 C 55 % 0 lf 1008,2 hPa 0,0 l/m 2 min 0 min 726 W/m 29,3 km/h (5 Bft) 95,65 %
19.07.2017 12:12 31,6 C 35,6 C 36,7 C 53 % 0 lf 1008,3 hPa 0,0 l/m 4 min 0 min 738 W/m 23,0 km/h (4 Bft) 97,73 %
19.07.2017 12:14 31,6 C 35,6 C 36,7 C 54 % 0 lf 1008,3 hPa 0,0 l/m 2 min 0 min 713 W/m 18,8 km/h (3 Bft) 100,00 %
19.07.2017 12:16 31,6 C 35,6 C 36,7 C 54 % 0 lf 1008,1 hPa 0,0 l/m 2 min 0 min 645 W/m 25,1 km/h (4 Bft) 100,00 %
19.07.2017 12:18 31,7 C 35,6 C 36,1 C 54 % 0 lf 1008,0 hPa 0,0 l/m 2 min 0 min 527 W/m 29,3 km/h (5 Bft) 100,00 %
19.07.2017 12:20 31,7 C 36,1 C 36,1 C 54 % 0 lf 1008,0 hPa 0,0 l/m 0 min 0 min 332 W/m 14,6 km/h (3 Bft) 100,00 %
19.07.2017 12:22 31,7 C 36,7 C 36,7 C 55 % 0 lf 1008,0 hPa 0,0 l/m 0 min 0 min 277 W/m 20,9 km/h (4 Bft) 100,00 %
19.07.2017 12:24 31,8 C 37,8 C 37,2 C 55 % 0 lf 1008,0 hPa 0,0 l/m 0 min 0 min 273 W/m 27,2 km/h (4 Bft) 95,74 %
19.07.2017 12:26 31,8 C 37,2 C 37,2 C 55 % 0 lf 1008,1 hPa 0,0 l/m 0 min 0 min 288 W/m 23,0 km/h (4 Bft) 97,87 %
19.07.2017 12:28 31,9 C 37,2 C 37,2 C 54 % 0 lf 1008,0 hPa 0,0 l/m 0 min 0 min 351 W/m 23,0 km/h (4 Bft) 100,00 %
19.07.2017 12:30 31,9 C 38,3 C 37,8 C 55 % 0 lf 1008,0 hPa 0,0 l/m 2 min 0 min 467 W/m 23,0 km/h (4 Bft) 100,00 %
19.07.2017 12:32 32,1 C 37,8 C 37,8 C 54 % 0 lf 1008,0 hPa 0,0 l/m 2 min 0 min 603 W/m 20,9 km/h (4 Bft) 100,00 %
19.07.2017 12:34 32,1 C 36,7 C 37,8 C 54 % 0 lf 1007,9 hPa 0,0 l/m 2 min 0 min 737 W/m 20,9 km/h (4 Bft) 100,00 %
19.07.2017 12:36 32,2 C 37,2 C 37,8 C 54 % 0 lf 1007,9 hPa 0,0 l/m 2 min 0 min 744 W/m 20,9 km/h (4 Bft) 100,00 %
19.07.2017 12:38 32,2 C 37,2 C 37,2 C 53 % 0 lf 1007,9 hPa 0,0 l/m 2 min 0 min 753 W/m 16,7 km/h (3 Bft) 97,87 %
19.07.2017 12:40 32,3 C 37,2 C 37,2 C 54 % 0 lf 1007,9 hPa 0,0 l/m 2 min 0 min 777 W/m 25,1 km/h (4 Bft) 93,62 %
19.07.2017 12:42 32,4 C 37,2 C 36,7 C 54 % 0 lf 1007,8 hPa 0,0 l/m 2 min 0 min 798 W/m 23,0 km/h (4 Bft) 97,92 %
19.07.2017 12:44 32,4 C 37,2 C 36,1 C 53 % 0 lf 1007,8 hPa 0,0 l/m 2 min 0 min 795 W/m 16,7 km/h (3 Bft) 100,00 %
19.07.2017 12:46 32,4 C 37,8 C 35,6 C 54 % 0 lf 1007,7 hPa 0,0 l/m 2 min 0 min 807 W/m 23,0 km/h (4 Bft) 100,00 %
19.07.2017 12:48 32,5 C 36,7 C 35,0 C 53 % 0 lf 1007,7 hPa 0,0 l/m 2 min 0 min 789 W/m 23,0 km/h (4 Bft) 100,00 %
19.07.2017 12:50 32,6 C 37,8 C 34,4 C 53 % 0 lf 1007,7 hPa 0,0 l/m 2 min 0 min 737 W/m 20,9 km/h (4 Bft) 100,00 %
19.07.2017 12:52 32,6 C 37,2 C 34,4 C 53 % 0 lf 1007,7 hPa 0,0 l/m 2 min 0 min 712 W/m 20,9 km/h (4 Bft) 97,87 %
19.07.2017 12:54 32,6 C 37,8 C 34,4 C 52 % 0 lf 1007,7 hPa 0,0 l/m 2 min 0 min 729 W/m 18,8 km/h (3 Bft) 100,00 %
19.07.2017 12:56 32,7 C 37,8 C 34,4 C 53 % 0 lf 1007,7 hPa 0,0 l/m 2 min 0 min 750 W/m 14,6 km/h (3 Bft) 100,00 %
19.07.2017 12:58 32,7 C 36,7 C 34,4 C 53 % 0 lf 1007,7 hPa 0,0 l/m 2 min 0 min 717 W/m 14,6 km/h (3 Bft) 95,65 %
19.07.2017 13:00 32,7 C 36,1 C 34,4 C 52 % 0 lf 1007,7 hPa 0,0 l/m 2 min 0 min 669 W/m 14,6 km/h (3 Bft) 97,87 %
19.07.2017 13:02 32,8 C 37,8 C 34,4 C 53 % 0 lf 1007,6 hPa 0,0 l/m 2 min 0 min 710 W/m 16,7 km/h (3 Bft) 97,92 %
19.07.2017 13:04 32,8 C 37,2 C 35,0 C 52 % 0 lf 1007,6 hPa 0,0 l/m 2 min 0 min 720 W/m 20,9 km/h (4 Bft) 97,87 %
19.07.2017 13:06 32,8 C 37,2 C 35,6 C 52 % 0 lf 1007,6 hPa 0,0 l/m 2 min 0 min 710 W/m 16,7 km/h (3 Bft) 95,83 %
19.07.2017 13:08 32,9 C 37,2 C 36,1 C 53 % 0 lf 1007,6 hPa 0,0 l/m 2 min 0 min 730 W/m 16,7 km/h (3 Bft) 97,87 %
19.07.2017 13:10 32,9 C 36,7 C 36,1 C 52 % 0 lf 1007,5 hPa 0,0 l/m 2 min 0 min 759 W/m 18,8 km/h (3 Bft) 95,74 %
19.07.2017 13:12 32,9 C 36,7 C 36,7 C 53 % 0 lf 1007,4 hPa 0,0 l/m 2 min 0 min 767 W/m 12,6 km/h (3 Bft) 97,87 %
19.07.2017 13:14 32,9 C 35,6 C 35,6 C 52 % 0 lf 1007,5 hPa 0,0 l/m 2 min 0 min 674 W/m 18,8 km/h (3 Bft) 97,87 %
19.07.2017 13:16 32,9 C 35,0 C 35,0 C 51 % 0 lf 1007,5 hPa 0,0 l/m 0 min 0 min 389 W/m 16,7 km/h (3 Bft) 97,87 %
19.07.2017 13:18 32,9 C 35,0 C 34,4 C 51 % 0 lf 1007,4 hPa 0,0 l/m 2 min 0 min 538 W/m 16,7 km/h (3 Bft) 93,62 %
19.07.2017 13:20 32,9 C 35,6 C 34,4 C 52 % 0 lf 1007,5 hPa 0,0 l/m 2 min 0 min 688 W/m 18,8 km/h (3 Bft) 97,83 %
19.07.2017 13:22 32,9 C 36,7 C 35,0 C 52 % 0 lf 1007,4 hPa 0,0 l/m 2 min 0 min 725 W/m 10,5 km/h (2 Bft) 95,74 %
19.07.2017 13:24 33,0 C 37,2 C 35,6 C 53 % 0 lf 1007,4 hPa 0,0 l/m 2 min 0 min 677 W/m 10,5 km/h (2 Bft) 97,87 %
19.07.2017 13:26 33,1 C 37,2 C 35,6 C 52 % 0 lf 1007,3 hPa 0,0 l/m 2 min 0 min 645 W/m 23,0 km/h (4 Bft) 95,74 %
19.07.2017 13:28 33,1 C 36,7 C 35,6 C 53 % 0 lf 1007,3 hPa 0,0 l/m 2 min 0 min 600 W/m 18,8 km/h (3 Bft) 95,74 %
19.07.2017 13:30 33,2 C 37,2 C 35,6 C 53 % 0 lf 1007,3 hPa 0,0 l/m 2 min 0 min 597 W/m 14,6 km/h (3 Bft) 95,65 %
19.07.2017 13:32 33,2 C 36,1 C 35,6 C 52 % 0 lf 1007,4 hPa 0,0 l/m 2 min 0 min 559 W/m 14,6 km/h (3 Bft) 97,87 %
19.07.2017 13:34 33,2 C 36,1 C 35,6 C 52 % 0 lf 1007,4 hPa 0,0 l/m 2 min 0 min 618 W/m 16,7 km/h (3 Bft) 95,74 %
19.07.2017 13:36 33,2 C 36,1 C 35,0 C 52 % 0 lf 1007,4 hPa 0,0 l/m 2 min 0 min 629 W/m 20,9 km/h (4 Bft) 94,29 %
19.07.2017 13:38 33,2 C 36,1 C 35,0 C 51 % 0 lf 1007,4 hPa 0,0 l/m 2 min 0 min 595 W/m 12,6 km/h (3 Bft) 93,62 %
19.07.2017 13:40 33,2 C 36,7 C 35,0 C 51 % 0 lf 1007,3 hPa 0,0 l/m 2 min 0 min 549 W/m 14,6 km/h (3 Bft) 95,74 %
19.07.2017 13:42 33,3 C 37,2 C 35,0 C 51 % 0 lf 1007,2 hPa 0,0 l/m 2 min 0 min 589 W/m 18,8 km/h (3 Bft) 96,23 %
19.07.2017 13:44 33,3 C 37,8 C 35,0 C 52 % 0 lf 1007,2 hPa 0,0 l/m 2 min 0 min 642 W/m 18,8 km/h (3 Bft) 93,62 %
19.07.2017 13:46 33,4 C 37,8 C 35,0 C 53 % 0 lf 1007,1 hPa 0,0 l/m 2 min 0 min 640 W/m 18,8 km/h (3 Bft) 93,48 %
19.07.2017 13:48 33,4 C 37,8 C 35,6 C 51 % 0 lf 1007,1 hPa 0,0 l/m 2 min 0 min 798 W/m 14,6 km/h (3 Bft) 97,87 %
19.07.2017 13:50 33,5 C 37,8 C 35,6 C 52 % 0 lf 1007,1 hPa 0,0 l/m 2 min 0 min 794 W/m 14,6 km/h (3 Bft) 98,04 %
19.07.2017 13:52 33,6 C 38,3 C 35,6 C 53 % 0 lf 1007,2 hPa 0,0 l/m 2 min 0 min 541 W/m 12,6 km/h (3 Bft) 91,89 %
19.07.2017 13:54 33,7 C 38,3 C 36,1 C 52 % 0 lf 1007,2 hPa 0,0 l/m 2 min 0 min 737 W/m 12,6 km/h (3 Bft) 97,87 %
19.07.2017 13:56 33,7 C 37,2 C 36,1 C 50 % 0 lf 1007,3 hPa 0,0 l/m 2 min 0 min 720 W/m 29,3 km/h (5 Bft) 95,74 %
19.07.2017 13:58 33,7 C 37,8 C 36,1 C 51 % 0 lf 1007,5 hPa 0,0 l/m 2 min 0 min 768 W/m 27,2 km/h (4 Bft) 97,83 %
19.07.2017 14:00 33,7 C 38,3 C 35,6 C 51 % 0 lf 1007,5 hPa 0,0 l/m 2 min 0 min 740 W/m 20,9 km/h (4 Bft) 95,74 %
19.07.2017 14:02 33,8 C 37,8 C 35,6 C 50 % 0 lf 1007,5 hPa 0,0 l/m 2 min 0 min 750 W/m 23,0 km/h (4 Bft) 98,11 %
19.07.2017 14:04 33,8 C 38,9 C 36,1 C 52 % 0 lf 1007,5 hPa 0,0 l/m 2 min 0 min 774 W/m 18,8 km/h (3 Bft) 100,00 %
19.07.2017 14:06 33,8 C 39,4 C 36,1 C 52 % 0 lf 1007,5 hPa 0,0 l/m 2 min 0 min 806 W/m 20,9 km/h (4 Bft) 95,12 %
19.07.2017 14:08 33,9 C 40,6 C 37,2 C 51 % 0 lf 1007,5 hPa 0,0 l/m 2 min 0 min 829 W/m 20,9 km/h (4 Bft) 97,87 %
19.07.2017 14:10 34,0 C 41,7 C 37,8 C 51 % 0 lf 1007,5 hPa 0,0 l/m 2 min 0 min 822 W/m 14,6 km/h (3 Bft) 97,83 %
19.07.2017 14:12 34,1 C 41,7 C 38,3 C 52 % 0 lf 1007,5 hPa 0,0 l/m 2 min 0 min 803 W/m 18,8 km/h (3 Bft) 95,74 %
19.07.2017 14:14 34,2 C 41,1 C 38,9 C 53 % 0 lf 1007,5 hPa 0,0 l/m 2 min 0 min 811 W/m 10,5 km/h (2 Bft) 97,87 %
19.07.2017 14:16 34,3 C 40,6 C 39,4 C 51 % 0 lf 1007,5 hPa 0,0 l/m 2 min 0 min 765 W/m 20,9 km/h (4 Bft) 93,62 %
19.07.2017 14:18 34,3 C 40,0 C 39,4 C 51 % 0 lf 1007,5 hPa 0,0 l/m 2 min 0 min 745 W/m 20,9 km/h (4 Bft) 93,62 %
19.07.2017 14:20 34,3 C 37,8 C 37,8 C 49 % 0 lf 1007,5 hPa 0,0 l/m 2 min 0 min 637 W/m 27,2 km/h (4 Bft) 97,87 %
19.07.2017 14:22 34,3 C 37,2 C 36,7 C 49 % 0 lf 1007,6 hPa 0,0 l/m 2 min 0 min 551 W/m 20,9 km/h (4 Bft) 97,83 %
19.07.2017 14:24 34,2 C 36,7 C 36,1 C 49 % 0 lf 1007,5 hPa 0,0 l/m 2 min 0 min 530 W/m 18,8 km/h (3 Bft) 97,87 %
19.07.2017 14:26 34,1 C 36,1 C 36,1 C 50 % 0 lf 1007,6 hPa 0,0 l/m 2 min 0 min 473 W/m 27,2 km/h (4 Bft) 97,87 %
19.07.2017 14:28 33,9 C 35,6 C 35,6 C 50 % 0 lf 1007,6 hPa 0,0 l/m 2 min 0 min 559 W/m 23,0 km/h (4 Bft) 95,74 %
19.07.2017 14:30 33,8 C 36,1 C 36,1 C 51 % 0 lf 1007,4 hPa 0,0 l/m 2 min 0 min 600 W/m 20,9 km/h (4 Bft) 95,74 %
19.07.2017 14:32 33,8 C 36,7 C 36,1 C 52 % 0 lf 1007,4 hPa 0,0 l/m 2 min 0 min 592 W/m 16,7 km/h (3 Bft) 100,00 %
19.07.2017 14:34 33,8 C 36,7 C 36,7 C 51 % 0 lf 1007,5 hPa 0,0 l/m 2 min 0 min 544 W/m 18,8 km/h (3 Bft) 95,74 %
19.07.2017 14:36 33,8 C 37,2 C 37,2 C 53 % 0 lf 1007,3 hPa 0,0 l/m 2 min 0 min 608 W/m 14,6 km/h (3 Bft) 97,56 %
19.07.2017 14:38 33,8 C 37,8 C 37,8 C 53 % 0 lf 1007,4 hPa 0,0 l/m 2 min 0 min 613 W/m 14,6 km/h (3 Bft) 95,74 %
19.07.2017 14:40 33,8 C 37,2 C 37,8 C 54 % 0 lf 1007,4 hPa 0,0 l/m 2 min 0 min 552 W/m 18,8 km/h (3 Bft) 93,62 %
19.07.2017 14:42 33,8 C 37,2 C 37,2 C 53 % 0 lf 1007,4 hPa 0,0 l/m 2 min 0 min 493 W/m 25,1 km/h (4 Bft) 95,74 %
19.07.2017 14:44 33,7 C 35,6 C 36,7 C 53 % 0 lf 1007,4 hPa 0,0 l/m 2 min 0 min 443 W/m 16,7 km/h (3 Bft) 97,83 %
19.07.2017 14:46 33,7 C 35,6 C 36,1 C 53 % 0 lf 1007,4 hPa 0,0 l/m 2 min 0 min 411 W/m 16,7 km/h (3 Bft) 95,74 %
19.07.2017 14:48 33,6 C 35,6 C 35,6 C 53 % 0 lf 1007,4 hPa 0,0 l/m 0 min 0 min 399 W/m 16,7 km/h (3 Bft) 97,87 %
19.07.2017 14:50 33,6 C 35,0 C 35,0 C 53 % 0 lf 1007,4 hPa 0,0 l/m 0 min 0 min 361 W/m 16,7 km/h (3 Bft) 98,31 %
19.07.2017 14:52 33,5 C 35,0 C 35,0 C 53 % 0 lf 1007,4 hPa 0,0 l/m 0 min 0 min 360 W/m 18,8 km/h (3 Bft) 94,29 %
19.07.2017 14:54 33,5 C 35,0 C 34,4 C 53 % 0 lf 1007,5 hPa 0,0 l/m 0 min 0 min 356 W/m 14,6 km/h (3 Bft) 97,87 %
19.07.2017 14:56 33,4 C 35,0 C 34,4 C 54 % 0 lf 1007,4 hPa 0,0 l/m 0 min 0 min 366 W/m 18,8 km/h (3 Bft) 97,87 %
19.07.2017 14:58 33,4 C 35,0 C 34,4 C 54 % 0 lf 1007,4 hPa 0,0 l/m 2 min 0 min 408 W/m 23,0 km/h (4 Bft) 95,65 %
19.07.2017 15:00 33,3 C 34,4 C 34,4 C 53 % 0 lf 1007,4 hPa 0,0 l/m 0 min 0 min 364 W/m 14,6 km/h (3 Bft) 95,74 %
19.07.2017 15:02 33,2 C 34,4 C 33,9 C 54 % 0 lf 1007,4 hPa 0,0 l/m 0 min 0 min 294 W/m 20,9 km/h (4 Bft) 98,11 %
19.07.2017 15:04 33,1 C 33,3 C 33,3 C 53 % 0 lf 1007,4 hPa 0,0 l/m 0 min 0 min 242 W/m 25,1 km/h (4 Bft) 95,74 %
19.07.2017 15:06 32,9 C 32,8 C 32,8 C 54 % 0 lf 1007,5 hPa 0,0 l/m 0 min 0 min 202 W/m 18,8 km/h (3 Bft) 97,56 %
19.07.2017 15:08 32,8 C 32,8 C 31,7 C 54 % 0 lf 1007,5 hPa 0,0 l/m 0 min 0 min 170 W/m 16,7 km/h (3 Bft) 95,65 %
19.07.2017 15:10 32,6 C 32,2 C 31,1 C 54 % 0 lf 1007,6 hPa 0,0 l/m 0 min 0 min 137 W/m 16,7 km/h (3 Bft) 95,74 %
19.07.2017 15:12 32,5 C 32,2 C 31,1 C 55 % 0 lf 1007,7 hPa 0,0 l/m 0 min 0 min 101 W/m 18,8 km/h (3 Bft) 97,87 %
19.07.2017 15:14 32,3 C 31,1 C 30,6 C 55 % 0 lf 1008,0 hPa 0,0 l/m 0 min 0 min 65 W/m 41,8 km/h (6 Bft) 95,74 %
19.07.2017 15:16 31,9 C 30,0 C 28,9 C 52 % 0 lf 1008,3 hPa 0,0 l/m 0 min 0 min 37 W/m 48,1 km/h (6 Bft) 93,62 %
19.07.2017 15:18 31,4 C 28,9 C 27,8 C 51 % 0 lf 1008,5 hPa 0,0 l/m 0 min 0 min 23 W/m 43,9 km/h (6 Bft) 93,62 %
19.07.2017 15:20 31,0 C 28,3 C 27,2 C 51 % 0 lf 1008,7 hPa 0,0 l/m 0 min 0 min 17 W/m 46,0 km/h (6 Bft) 94,83 %
19.07.2017 15:22 30,4 C 27,2 C 26,7 C 50 % 0 lf 1008,7 hPa 0,0 l/m 0 min 0 min 13 W/m 48,1 km/h (6 Bft) 97,14 %
19.07.2017 15:24 29,9 C 27,2 C 26,1 C 51 % 0 lf 1008,9 hPa 0,0 l/m 0 min 0 min 9 W/m 35,6 km/h (5 Bft) 96,00 %
19.07.2017 15:26 29,2 C 26,7 C 24,4 C 53 % 0 lf 1009,1 hPa 0,0 l/m 0 min 0 min 6 W/m 41,8 km/h (6 Bft) 95,74 %
19.07.2017 15:28 28,7 C 22,8 C 22,8 C 55 % 15 lf 1009,5 hPa 0,0 l/m 0 min 2 min 5 W/m 39,7 km/h (6 Bft) 95,74 %
19.07.2017 15:30 28,2 C 20,6 C 19,4 C 60 % 15 lf 1009,8 hPa 0,6 l/m 0 min 2 min 5 W/m 37,7 km/h (5 Bft) 95,65 %
19.07.2017 15:32 27,6 C 19,4 C 18,3 C 64 % 15 lf 1009,8 hPa 1,4 l/m 0 min 2 min 5 W/m 33,5 km/h (5 Bft) 93,62 %
19.07.2017 15:34 26,8 C 18,9 C 18,3 C 67 % 15 lf 1009,2 hPa 1,8 l/m 0 min 2 min 5 W/m 43,9 km/h (6 Bft) 95,74 %
19.07.2017 15:36 26,0 C 18,9 C 17,8 C 70 % 15 lf 1008,5 hPa 1,2 l/m 0 min 2 min 7 W/m 39,7 km/h (6 Bft) 95,74 %
19.07.2017 15:38 25,4 C 18,3 C 17,8 C 71 % 15 lf 1008,4 hPa 1,2 l/m 0 min 2 min 8 W/m 29,3 km/h (5 Bft) 89,36 %
19.07.2017 15:40 24,7 C 18,9 C 18,3 C 73 % 15 lf 1008,6 hPa 1,0 l/m 0 min 2 min 9 W/m 27,2 km/h (4 Bft) 95,74 %
19.07.2017 15:42 24,1 C 18,9 C 18,3 C 75 % 15 lf 1008,8 hPa 0,4 l/m 0 min 2 min 9 W/m 23,0 km/h (4 Bft) 97,83 %
19.07.2017 15:44 23,5 C 18,9 C 18,3 C 77 % 15 lf 1008,9 hPa 0,0 l/m 0 min 2 min 11 W/m 20,9 km/h (4 Bft) 97,87 %
19.07.2017 15:46 23,1 C 18,9 C 18,3 C 78 % 15 lf 1008,6 hPa 0,2 l/m 0 min 2 min 13 W/m 25,1 km/h (4 Bft) 97,87 %
19.07.2017 15:48 22,7 C 18,9 C 18,3 C 80 % 15 lf 1008,6 hPa 0,0 l/m 0 min 2 min 13 W/m 23,0 km/h (4 Bft) 93,62 %
19.07.2017 15:50 22,4 C 18,9 C 18,3 C 81 % 15 lf 1008,6 hPa 0,0 l/m 0 min 2 min 15 W/m 25,1 km/h (4 Bft) 95,74 %
19.07.2017 15:52 22,2 C 18,9 C 18,3 C 82 % 15 lf 1008,7 hPa 0,0 l/m 0 min 0 min 12 W/m 27,2 km/h (4 Bft) 100,00 %
19.07.2017 15:54 21,9 C 18,9 C 18,3 C 83 % 15 lf 1008,7 hPa 0,0 l/m 0 min 0 min 12 W/m 20,9 km/h (4 Bft) 100,00 %
19.07.2017 15:56 21,8 C 18,9 C 18,9 C 84 % 15 lf 1008,7 hPa 0,0 l/m 0 min 2 min 14 W/m 20,9 km/h (4 Bft) 97,87 %
19.07.2017 15:58 21,7 C 18,9 C 18,9 C 84 % 15 lf 1008,6 hPa 0,0 l/m 0 min 0 min 21 W/m 16,7 km/h (3 Bft) 97,87 %
19.07.2017 16:00 21,6 C 18,9 C 18,9 C 85 % 15 lf 1008,6 hPa 0,0 l/m 0 min 0 min 22 W/m 14,6 km/h (3 Bft) 93,62 %
19.07.2017 16:02 21,5 C 18,9 C 18,9 C 86 % 15 lf 1008,7 hPa 0,0 l/m 0 min 0 min 24 W/m 10,5 km/h (2 Bft) 91,49 %
19.07.2017 16:04 21,4 C 18,9 C 18,9 C 86 % 15 lf 1008,6 hPa 0,0 l/m 0 min 2 min 28 W/m 12,6 km/h (3 Bft) 97,87 %
19.07.2017 16:06 21,3 C 19,4 C 18,9 C 87 % 15 lf 1008,7 hPa 0,0 l/m 0 min 2 min 30 W/m 20,9 km/h (4 Bft) 95,65 %
19.07.2017 16:08 21,3 C 18,9 C 18,9 C 87 % 15 lf 1008,6 hPa 0,0 l/m 0 min 0 min 36 W/m 18,8 km/h (3 Bft) 97,87 %
19.07.2017 16:10 21,2 C 19,4 C 18,9 C 87 % 15 lf 1008,7 hPa 0,0 l/m 2 min 0 min 365 W/m 10,5 km/h (2 Bft) 97,87 %
19.07.2017 16:12 21,2 C 19,4 C 18,9 C 88 % 15 lf 1008,7 hPa 0,0 l/m 2 min 2 min 542 W/m 16,7 km/h (3 Bft) 97,87 %
19.07.2017 16:14 21,1 C 19,4 C 18,9 C 88 % 15 lf 1008,8 hPa 0,0 l/m 2 min 2 min 568 W/m 12,6 km/h (3 Bft) 97,87 %
19.07.2017 16:16 21,1 C 19,4 C 18,9 C 88 % 15 lf 1009,1 hPa 0,0 l/m 2 min 2 min 543 W/m 14,6 km/h (3 Bft) 97,83 %
19.07.2017 16:18 21,0 C 19,4 C 18,9 C 88 % 15 lf 1009,2 hPa 0,0 l/m 2 min 0 min 546 W/m 14,6 km/h (3 Bft) 97,87 %
19.07.2017 16:20 21,0 C 18,9 C 18,9 C 88 % 15 lf 1009,3 hPa 0,0 l/m 0 min 2 min 277 W/m 16,7 km/h (3 Bft) 95,74 %
19.07.2017 16:22 20,9 C 18,9 C 18,9 C 88 % 15 lf 1009,5 hPa 0,0 l/m 0 min 2 min 23 W/m 16,7 km/h (3 Bft) 93,62 %
19.07.2017 16:24 20,9 C 18,9 C 18,3 C 89 % 15 lf 1009,4 hPa 0,2 l/m 0 min 2 min 19 W/m 20,9 km/h (4 Bft) 95,74 %
19.07.2017 16:26 20,9 C 18,9 C 18,9 C 89 % 15 lf 1009,4 hPa 0,0 l/m 0 min 2 min 19 W/m 10,5 km/h (2 Bft) 95,74 %
19.07.2017 16:28 20,8 C 18,9 C 18,9 C 89 % 15 lf 1009,4 hPa 0,0 l/m 0 min 2 min 19 W/m 14,6 km/h (3 Bft) 97,83 %
19.07.2017 16:30 20,8 C 18,9 C 18,9 C 89 % 15 lf 1009,5 hPa 0,0 l/m 0 min 0 min 19 W/m 10,5 km/h (2 Bft) 97,87 %
19.07.2017 16:32 20,8 C 18,9 C 18,9 C 89 % 15 lf 1009,4 hPa 0,0 l/m 0 min 0 min 19 W/m 10,5 km/h (2 Bft) 95,74 %
19.07.2017 16:34 20,8 C 18,9 C 18,9 C 89 % 15 lf 1009,3 hPa 0,0 l/m 0 min 2 min 19 W/m 12,6 km/h (3 Bft) 95,74 %
19.07.2017 16:36 20,7 C 18,9 C 18,9 C 90 % 15 lf 1009,2 hPa 0,0 l/m 0 min 2 min 19 W/m 6,3 km/h (2 Bft) 97,87 %
19.07.2017 16:38 20,7 C 18,9 C 18,9 C 90 % 15 lf 1009,0 hPa 0,0 l/m 0 min 2 min 19 W/m 4,2 km/h (1 Bft) 93,62 %
19.07.2017 16:40 20,7 C 18,9 C 18,9 C 90 % 15 lf 1008,8 hPa 0,0 l/m 0 min 2 min 19 W/m 4,2 km/h (1 Bft) 95,65 %
19.07.2017 16:42 20,7 C 18,9 C 18,9 C 90 % 15 lf 1008,6 hPa 0,0 l/m 0 min 2 min 19 W/m 8,4 km/h (2 Bft) 95,74 %
19.07.2017 16:44 20,7 C 19,4 C 18,9 C 90 % 15 lf 1008,4 hPa 0,0 l/m 0 min 2 min 19 W/m 10,5 km/h (2 Bft) 93,62 %
19.07.2017 16:46 20,7 C 19,4 C 18,9 C 91 % 15 lf 1008,4 hPa 0,0 l/m 0 min 2 min 19 W/m 8,4 km/h (2 Bft) 95,74 %
19.07.2017 16:48 20,7 C 19,4 C 18,9 C 91 % 15 lf 1008,3 hPa 0,2 l/m 0 min 2 min 18 W/m 8,4 km/h (2 Bft) 95,74 %
19.07.2017 16:50 20,7 C 19,4 C 18,9 C 91 % 15 lf 1008,3 hPa 0,0 l/m 0 min 2 min 18 W/m 8,4 km/h (2 Bft) 95,74 %
19.07.2017 16:52 20,7 C 19,4 C 18,9 C 91 % 15 lf 1008,4 hPa 0,0 l/m 0 min 2 min 18 W/m 8,4 km/h (2 Bft) 97,83 %
19.07.2017 16:54 20,7 C 19,4 C 18,9 C 91 % 15 lf 1008,3 hPa 0,0 l/m 0 min 2 min 18 W/m 8,4 km/h (2 Bft) 95,74 %
19.07.2017 16:56 20,7 C 19,4 C 18,9 C 91 % 15 lf 1008,3 hPa 0,0 l/m 0 min 2 min 18 W/m 8,4 km/h (2 Bft) 93,62 %
19.07.2017 16:58 20,8 C 19,4 C 18,9 C 92 % 15 lf 1008,0 hPa 0,0 l/m 0 min 2 min 18 W/m 8,4 km/h (2 Bft) 95,74 %
19.07.2017 17:00 20,8 C 19,4 C 18,9 C 92 % 15 lf 1008,0 hPa 0,2 l/m 0 min 2 min 18 W/m 14,6 km/h (3 Bft) 95,74 %
19.07.2017 17:02 20,8 C 19,4 C 18,9 C 92 % 15 lf 1008,1 hPa 0,0 l/m 0 min 2 min 18 W/m 16,7 km/h (3 Bft) 96,23 %
19.07.2017 17:04 20,8 C 19,4 C 18,9 C 92 % 15 lf 1008,3 hPa 0,0 l/m 0 min 2 min 18 W/m 20,9 km/h (4 Bft) 97,83 %
19.07.2017 17:06 20,7 C 19,4 C 18,9 C 92 % 15 lf 1008,5 hPa 0,0 l/m 0 min 2 min 18 W/m 23,0 km/h (4 Bft) 96,00 %
19.07.2017 17:08 20,7 C 19,4 C 18,9 C 93 % 15 lf 1008,5 hPa 0,0 l/m 0 min 2 min 19 W/m 23,0 km/h (4 Bft) 95,74 %
19.07.2017 17:10 20,7 C 19,4 C 18,9 C 93 % 15 lf 1008,5 hPa 0,0 l/m 0 min 2 min 22 W/m 25,1 km/h (4 Bft) 97,87 %
19.07.2017 17:12 20,7 C 19,4 C 18,9 C 93 % 15 lf 1008,5 hPa 0,0 l/m 0 min 2 min 25 W/m 18,8 km/h (3 Bft) 91,67 %
19.07.2017 17:14 20,7 C 19,4 C 18,9 C 93 % 15 lf 1008,5 hPa 0,0 l/m 0 min 2 min 28 W/m 12,6 km/h (3 Bft) 95,65 %
19.07.2017 17:16 20,7 C 19,4 C 18,9 C 93 % 15 lf 1008,5 hPa 0,2 l/m 0 min 2 min 31 W/m 6,3 km/h (2 Bft) 95,74 %
19.07.2017 17:18 20,6 C 19,4 C 18,9 C 93 % 15 lf 1008,5 hPa 0,0 l/m 0 min 2 min 36 W/m 6,3 km/h (2 Bft) 95,74 %
19.07.2017 17:20 20,6 C 19,4 C 18,9 C 93 % 15 lf 1008,5 hPa 0,0 l/m 0 min 2 min 41 W/m 10,5 km/h (2 Bft) 95,74 %
19.07.2017 17:22 20,6 C 19,4 C 18,9 C 93 % 15 lf 1008,6 hPa 0,0 l/m 0 min 2 min 47 W/m 10,5 km/h (2 Bft) 95,74 %
19.07.2017 17:24 20,6 C 19,4 C 18,9 C 93 % 15 lf 1008,6 hPa 0,0 l/m 0 min 2 min 54 W/m 10,5 km/h (2 Bft) 95,74 %
19.07.2017 17:26 20,6 C 19,4 C 18,9 C 93 % 15 lf 1008,6 hPa 0,0 l/m 0 min 2 min 62 W/m 12,6 km/h (3 Bft) 97,83 %
19.07.2017 17:28 20,6 C 19,4 C 18,9 C 93 % 15 lf 1008,5 hPa 0,0 l/m 0 min 2 min 73 W/m 10,5 km/h (2 Bft) 93,62 %
19.07.2017 17:30 20,6 C 19,4 C 18,9 C 93 % 15 lf 1008,5 hPa 0,0 l/m 0 min 2 min 82 W/m 10,5 km/h (2 Bft) 97,87 %
19.07.2017 17:32 20,6 C 19,4 C 19,4 C 93 % 15 lf 1008,5 hPa 0,0 l/m 0 min 0 min 91 W/m 6,3 km/h (2 Bft) 93,62 %
19.07.2017 17:34 20,6 C 20,0 C 19,4 C 94 % 15 lf 1008,5 hPa 0,0 l/m 0 min 0 min 99 W/m 8,4 km/h (2 Bft) 100,00 %
19.07.2017 17:36 20,6 C 20,0 C 20,0 C 94 % 15 lf 1008,4 hPa 0,0 l/m 0 min 0 min 106 W/m 6,3 km/h (2 Bft) 95,83 %
19.07.2017 17:38 20,6 C 20,0 C 20,0 C 94 % 15 lf 1008,5 hPa 0,0 l/m 0 min 0 min 118 W/m 4,2 km/h (1 Bft) 97,87 %
19.07.2017 17:40 20,7 C 20,6 C 20,0 C 94 % 15 lf 1008,5 hPa 0,0 l/m 0 min 0 min 129 W/m 6,3 km/h (2 Bft) 95,74 %
19.07.2017 17:42 20,7 C 20,0 C 20,0 C 94 % 15 lf 1008,5 hPa 0,0 l/m 0 min 0 min 139 W/m 8,4 km/h (2 Bft) 95,74 %
19.07.2017 17:44 20,7 C 20,0 C 20,0 C 94 % 15 lf 1008,5 hPa 0,0 l/m 0 min 0 min 147 W/m 8,4 km/h (2 Bft) 97,87 %
19.07.2017 17:46 20,7 C 20,0 C 20,0 C 94 % 15 lf 1008,5 hPa 0,0 l/m 0 min 0 min 151 W/m 8,4 km/h (2 Bft) 100,00 %
19.07.2017 17:48 20,8 C 20,6 C 20,0 C 94 % 15 lf 1008,6 hPa 0,0 l/m 0 min 0 min 157 W/m 12,6 km/h (3 Bft) 100,00 %
19.07.2017 17:50 20,8 C 20,6 C 20,0 C 94 % 15 lf 1008,6 hPa 0,0 l/m 0 min 0 min 163 W/m 12,6 km/h (3 Bft) 97,87 %
19.07.2017 17:52 20,9 C 20,6 C 20,6 C 94 % 15 lf 1008,6 hPa 0,0 l/m 0 min 0 min 171 W/m 12,6 km/h (3 Bft) 100,00 %
19.07.2017 17:54 20,9 C 20,6 C 20,0 C 95 % 15 lf 1008,6 hPa 0,0 l/m 0 min 2 min 177 W/m 18,8 km/h (3 Bft) 100,00 %
19.07.2017 17:56 20,9 C 20,6 C 20,6 C 94 % 15 lf 1008,6 hPa 0,0 l/m 0 min 0 min 194 W/m 18,8 km/h (3 Bft) 100,00 %
19.07.2017 17:58 20,9 C 20,6 C 20,6 C 94 % 15 lf 1008,6 hPa 0,0 l/m 0 min 2 min 205 W/m 16,7 km/h (3 Bft) 97,87 %
19.07.2017 18:00 20,9 C 20,6 C 20,6 C 94 % 15 lf 1008,6 hPa 0,0 l/m 0 min 0 min 208 W/m 14,6 km/h (3 Bft) 100,00 %
19.07.2017 18:02 20,9 C 20,6 C 20,6 C 94 % 15 lf 1008,6 hPa 0,0 l/m 0 min 0 min 217 W/m 18,8 km/h (3 Bft) 97,14 %
19.07.2017 18:04 20,9 C 20,6 C 21,1 C 94 % 15 lf 1008,6 hPa 0,0 l/m 0 min 0 min 224 W/m 16,7 km/h (3 Bft) 100,00 %
19.07.2017 18:06 20,9 C 20,6 C 21,1 C 94 % 15 lf 1008,6 hPa 0,0 l/m 0 min 0 min 225 W/m 14,6 km/h (3 Bft) 100,00 %
19.07.2017 18:10 21,0 C 21,1 C 21,1 C 95 % 14 lf 1008,6 hPa 0,0 l/m 0 min 0 min 222 W/m 16,7 km/h (3 Bft) 99,03 %
19.07.2017 18:12 21,0 C 21,1 C 21,1 C 95 % 14 lf 1008,5 hPa 0,0 l/m 0 min 0 min 217 W/m 10,5 km/h (2 Bft) 95,83 %
19.07.2017 18:14 21,1 C 21,1 C 21,1 C 95 % 11 lf 1008,5 hPa 0,0 l/m 2 min 0 min 242 W/m 10,5 km/h (2 Bft) 97,83 %
19.07.2017 18:16 21,1 C 21,1 C 21,1 C 95 % 9 lf 1008,5 hPa 0,0 l/m 0 min 0 min 229 W/m 16,7 km/h (3 Bft) 95,74 %
19.07.2017 18:18 21,1 C 21,1 C 21,1 C 95 % 5 lf 1008,4 hPa 0,0 l/m 0 min 0 min 227 W/m 18,8 km/h (3 Bft) 97,87 %
19.07.2017 18:20 21,1 C 21,1 C 21,1 C 94 % 3 lf 1008,4 hPa 0,0 l/m 0 min 0 min 228 W/m 20,9 km/h (4 Bft) 95,74 %
19.07.2017 18:22 21,2 C 21,1 C 21,1 C 94 % 2 lf 1008,4 hPa 0,0 l/m 0 min 0 min 219 W/m 12,6 km/h (3 Bft) 97,87 %
19.07.2017 18:24 21,2 C 21,7 C 21,1 C 94 % 2 lf 1008,4 hPa 0,0 l/m 0 min 0 min 207 W/m 18,8 km/h (3 Bft) 97,83 %
19.07.2017 18:26 21,2 C 22,2 C 21,1 C 94 % 1 lf 1008,4 hPa 0,0 l/m 0 min 0 min 198 W/m 16,7 km/h (3 Bft) 97,87 %
19.07.2017 18:28 21,2 C 22,2 C 21,1 C 94 % 1 lf 1008,4 hPa 0,0 l/m 0 min 0 min 191 W/m 12,6 km/h (3 Bft) 97,87 %
19.07.2017 18:30 21,3 C 22,8 C 21,1 C 94 % 0 lf 1008,3 hPa 0,0 l/m 0 min 0 min 190 W/m 12,6 km/h (3 Bft) 97,87 %
19.07.2017 18:32 21,3 C 22,8 C 21,1 C 94 % 0 lf 1008,3 hPa 0,0 l/m 0 min 0 min 194 W/m 10,5 km/h (2 Bft) 97,92 %
19.07.2017 18:34 21,3 C 23,3 C 21,1 C 94 % 0 lf 1008,2 hPa 0,0 l/m 2 min 0 min 217 W/m 18,8 km/h (3 Bft) 95,74 %
19.07.2017 18:36 21,4 C 23,3 C 21,1 C 94 % 0 lf 1008,1 hPa 0,0 l/m 0 min 0 min 211 W/m 16,7 km/h (3 Bft) 97,22 %
19.07.2017 18:38 21,4 C 23,3 C 21,1 C 94 % 0 lf 1008,1 hPa 0,0 l/m 0 min 0 min 206 W/m 16,7 km/h (3 Bft) 93,48 %
19.07.2017 18:40 21,4 C 22,8 C 21,1 C 94 % 0 lf 1008,1 hPa 0,0 l/m 0 min 0 min 196 W/m 8,4 km/h (2 Bft) 97,87 %
19.07.2017 18:42 21,4 C 22,8 C 21,1 C 93 % 0 lf 1008,1 hPa 0,0 l/m 0 min 0 min 192 W/m 12,6 km/h (3 Bft) 95,74 %
19.07.2017 18:44 21,5 C 22,8 C 21,1 C 93 % 0 lf 1008,0 hPa 0,0 l/m 2 min 0 min 353 W/m 20,9 km/h (4 Bft) 95,74 %
19.07.2017 18:46 21,5 C 23,3 C 21,1 C 93 % 0 lf 1008,0 hPa 0,0 l/m 2 min 0 min 410 W/m 14,6 km/h (3 Bft) 97,87 %
19.07.2017 18:48 21,6 C 23,3 C 21,7 C 93 % 0 lf 1007,9 hPa 0,0 l/m 2 min 0 min 407 W/m 16,7 km/h (3 Bft) 97,87 %
19.07.2017 18:50 21,6 C 23,3 C 21,7 C 93 % 0 lf 1007,8 hPa 0,0 l/m 2 min 0 min 394 W/m 20,9 km/h (4 Bft) 93,48 %
19.07.2017 18:52 21,7 C 23,3 C 21,7 C 92 % 0 lf 1007,8 hPa 0,0 l/m 2 min 0 min 347 W/m 14,6 km/h (3 Bft) 95,74 %
19.07.2017 18:54 21,7 C 23,3 C 21,1 C 92 % 0 lf 1007,8 hPa 0,0 l/m 2 min 0 min 318 W/m 14,6 km/h (3 Bft) 97,87 %
19.07.2017 18:56 21,7 C 23,3 C 21,1 C 92 % 0 lf 1007,7 hPa 0,0 l/m 2 min 0 min 314 W/m 16,7 km/h (3 Bft) 97,87 %
19.07.2017 18:58 21,8 C 23,3 C 21,1 C 92 % 0 lf 1007,6 hPa 0,0 l/m 2 min 0 min 309 W/m 16,7 km/h (3 Bft) 91,49 %
19.07.2017 19:00 21,8 C 23,3 C 21,1 C 91 % 0 lf 1007,6 hPa 0,0 l/m 2 min 0 min 304 W/m 20,9 km/h (4 Bft) 93,48 %
19.07.2017 19:02 21,9 C 23,3 C 21,1 C 91 % 0 lf 1007,6 hPa 0,0 l/m 2 min 0 min 309 W/m 16,7 km/h (3 Bft) 91,49 %
19.07.2017 19:04 21,9 C 23,3 C 21,1 C 90 % 0 lf 1007,7 hPa 0,0 l/m 2 min 0 min 266 W/m 14,6 km/h (3 Bft) 91,49 %
19.07.2017 19:06 21,9 C 23,3 C 21,1 C 90 % 0 lf 1007,7 hPa 0,0 l/m 2 min 0 min 250 W/m 14,6 km/h (3 Bft) 94,55 %
19.07.2017 19:08 22,0 C 23,3 C 21,1 C 89 % 0 lf 1007,7 hPa 0,0 l/m 2 min 0 min 258 W/m 10,5 km/h (2 Bft) 95,74 %
19.07.2017 19:10 22,1 C 23,3 C 21,1 C 89 % 0 lf 1007,7 hPa 0,0 l/m 2 min 0 min 209 W/m 12,6 km/h (3 Bft) 97,87 %
19.07.2017 19:12 22,1 C 23,3 C 21,1 C 89 % 0 lf 1007,7 hPa 0,0 l/m 2 min 0 min 257 W/m 10,5 km/h (2 Bft) 97,87 %
19.07.2017 19:14 22,2 C 23,3 C 21,1 C 89 % 0 lf 1007,7 hPa 0,0 l/m 2 min 0 min 256 W/m 14,6 km/h (3 Bft) 91,49 %
19.07.2017 19:16 22,2 C 23,3 C 21,1 C 88 % 0 lf 1007,7 hPa 0,0 l/m 2 min 0 min 262 W/m 8,4 km/h (2 Bft) 95,74 %
19.07.2017 19:18 22,3 C 23,3 C 21,1 C 88 % 0 lf 1007,7 hPa 0,0 l/m 2 min 0 min 193 W/m 14,6 km/h (3 Bft) 93,62 %
19.07.2017 19:20 22,3 C 23,3 C 21,7 C 87 % 0 lf 1007,7 hPa 0,0 l/m 2 min 0 min 241 W/m 8,4 km/h (2 Bft) 95,74 %
19.07.2017 19:22 22,4 C 23,3 C 21,7 C 87 % 0 lf 1007,7 hPa 0,0 l/m 2 min 0 min 247 W/m 10,5 km/h (2 Bft) 95,74 %
19.07.2017 19:24 22,4 C 23,3 C 21,7 C 87 % 0 lf 1007,7 hPa 0,0 l/m 2 min 0 min 239 W/m 12,6 km/h (3 Bft) 91,30 %
19.07.2017 19:26 22,5 C 23,3 C 21,7 C 87 % 0 lf 1007,6 hPa 0,0 l/m 2 min 0 min 202 W/m 16,7 km/h (3 Bft) 91,49 %
19.07.2017 19:28 22,6 C 23,3 C 21,7 C 86 % 0 lf 1007,6 hPa 0,0 l/m 2 min 0 min 217 W/m 14,6 km/h (3 Bft) 91,49 %
19.07.2017 19:30 22,6 C 23,3 C 21,7 C 86 % 0 lf 1007,5 hPa 0,0 l/m 2 min 0 min 222 W/m 12,6 km/h (3 Bft) 91,49 %
19.07.2017 19:32 22,6 C 23,3 C 21,7 C 85 % 0 lf 1007,5 hPa 0,0 l/m 2 min 0 min 220 W/m 20,9 km/h (4 Bft) 93,75 %
19.07.2017 19:34 22,7 C 23,3 C 21,7 C 85 % 0 lf 1007,5 hPa 0,0 l/m 2 min 0 min 211 W/m 12,6 km/h (3 Bft) 93,62 %
19.07.2017 19:36 22,7 C 23,9 C 21,7 C 85 % 0 lf 1007,4 hPa 0,0 l/m 2 min 0 min 207 W/m 8,4 km/h (2 Bft) 91,67 %
19.07.2017 19:38 22,8 C 23,9 C 21,7 C 85 % 0 lf 1007,3 hPa 0,0 l/m 2 min 0 min 207 W/m 8,4 km/h (2 Bft) 93,62 %
19.07.2017 19:40 22,8 C 23,9 C 21,7 C 85 % 0 lf 1007,3 hPa 0,0 l/m 2 min 0 min 182 W/m 8,4 km/h (2 Bft) 93,62 %
19.07.2017 19:42 22,9 C 23,9 C 21,7 C 85 % 0 lf 1007,3 hPa 0,0 l/m 2 min 0 min 198 W/m 12,6 km/h (3 Bft) 91,49 %
19.07.2017 19:44 22,9 C 23,9 C 21,7 C 85 % 0 lf 1007,3 hPa 0,0 l/m 2 min 0 min 193 W/m 12,6 km/h (3 Bft) 93,62 %
19.07.2017 19:46 22,9 C 23,3 C 21,7 C 85 % 0 lf 1007,3 hPa 0,0 l/m 2 min 0 min 191 W/m 18,8 km/h (3 Bft) 89,36 %
19.07.2017 19:48 23,0 C 23,3 C 21,7 C 84 % 0 lf 1007,3 hPa 0,0 l/m 2 min 0 min 189 W/m 14,6 km/h (3 Bft) 93,48 %
19.07.2017 19:50 23,1 C 23,3 C 22,2 C 84 % 0 lf 1007,3 hPa 0,0 l/m 2 min 0 min 186 W/m 14,6 km/h (3 Bft) 95,74 %
19.07.2017 19:52 23,1 C 23,3 C 21,7 C 84 % 0 lf 1007,3 hPa 0,0 l/m 2 min 0 min 180 W/m 14,6 km/h (3 Bft) 97,87 %
19.07.2017 19:54 23,1 C 23,3 C 21,7 C 84 % 0 lf 1007,3 hPa 0,0 l/m 2 min 0 min 176 W/m 12,6 km/h (3 Bft) 97,87 %
19.07.2017 19:56 23,2 C 23,3 C 21,7 C 84 % 0 lf 1007,3 hPa 0,0 l/m 2 min 0 min 170 W/m 12,6 km/h (3 Bft) 97,87 %
19.07.2017 19:58 23,1 C 23,3 C 21,7 C 83 % 0 lf 1007,2 hPa 0,0 l/m 2 min 0 min 161 W/m 16,7 km/h (3 Bft) 97,87 %
19.07.2017 20:00 23,1 C 23,3 C 21,7 C 83 % 0 lf 1007,1 hPa 0,0 l/m 2 min 0 min 157 W/m 16,7 km/h (3 Bft) 97,83 %
19.07.2017 20:02 23,2 C 23,3 C 21,7 C 83 % 0 lf 1007,1 hPa 0,0 l/m 2 min 0 min 151 W/m 16,7 km/h (3 Bft) 95,74 %
19.07.2017 20:04 23,2 C 23,3 C 21,7 C 83 % 0 lf 1007,1 hPa 0,0 l/m 2 min 0 min 146 W/m 12,6 km/h (3 Bft) 93,62 %
19.07.2017 20:06 23,2 C 23,3 C 21,7 C 83 % 0 lf 1007,1 hPa 0,0 l/m 2 min 0 min 140 W/m 12,6 km/h (3 Bft) 100,00 %
19.07.2017 20:08 23,2 C 23,3 C 21,7 C 83 % 0 lf 1007,0 hPa 0,0 l/m 2 min 0 min 136 W/m 18,8 km/h (3 Bft) 100,00 %
19.07.2017 20:10 23,2 C 23,3 C 21,7 C 83 % 0 lf 1007,1 hPa 0,0 l/m 2 min 0 min 130 W/m 12,6 km/h (3 Bft) 100,00 %
19.07.2017 20:12 23,2 C 23,3 C 21,7 C 83 % 0 lf 1007,0 hPa 0,0 l/m 2 min 0 min 126 W/m 10,5 km/h (2 Bft) 97,83 %
19.07.2017 20:14 23,2 C 23,3 C 21,7 C 83 % 0 lf 1007,0 hPa 0,0 l/m 2 min 0 min 125 W/m 18,8 km/h (3 Bft) 100,00 %
19.07.2017 20:16 23,2 C 23,3 C 21,7 C 83 % 0 lf 1007,0 hPa 0,0 l/m 2 min 0 min 125 W/m 16,7 km/h (3 Bft) 97,87 %
19.07.2017 20:18 23,2 C 23,3 C 21,7 C 83 % 0 lf 1007,1 hPa 0,0 l/m 2 min 0 min 124 W/m 14,6 km/h (3 Bft) 100,00 %
19.07.2017 20:20 23,2 C 23,3 C 21,7 C 83 % 0 lf 1007,1 hPa 0,0 l/m 2 min 0 min 119 W/m 12,6 km/h (3 Bft) 100,00 %
19.07.2017 20:22 23,2 C 23,3 C 21,7 C 83 % 0 lf 1007,2 hPa 0,0 l/m 2 min 0 min 111 W/m 14,6 km/h (3 Bft) 97,83 %
19.07.2017 20:24 23,2 C 23,3 C 21,7 C 83 % 0 lf 1007,1 hPa 0,0 l/m 2 min 0 min 103 W/m 12,6 km/h (3 Bft) 97,87 %
19.07.2017 20:26 23,2 C 23,3 C 21,7 C 83 % 0 lf 1007,1 hPa 0,0 l/m 2 min 0 min 94 W/m 10,5 km/h (2 Bft) 97,87 %
19.07.2017 20:28 23,2 C 23,3 C 21,7 C 83 % 0 lf 1007,2 hPa 0,0 l/m 2 min 0 min 87 W/m 10,5 km/h (2 Bft) 100,00 %
19.07.2017 20:30 23,2 C 23,3 C 21,7 C 83 % 0 lf 1007,2 hPa 0,0 l/m 2 min 0 min 84 W/m 10,5 km/h (2 Bft) 100,00 %
19.07.2017 20:32 23,2 C 23,3 C 21,1 C 83 % 0 lf 1007,1 hPa 0,0 l/m 2 min 0 min 80 W/m 8,4 km/h (2 Bft) 100,00 %
19.07.2017 20:34 23,2 C 22,8 C 21,1 C 83 % 0 lf 1007,0 hPa 0,0 l/m 2 min 0 min 76 W/m 6,3 km/h (2 Bft) 100,00 %
19.07.2017 20:36 23,2 C 22,8 C 21,1 C 83 % 0 lf 1007,1 hPa 0,0 l/m 2 min 0 min 71 W/m 8,4 km/h (2 Bft) 94,00 %
19.07.2017 20:38 23,1 C 22,8 C 21,1 C 82 % 0 lf 1007,2 hPa 0,0 l/m 2 min 0 min 68 W/m 12,6 km/h (3 Bft) 100,00 %
19.07.2017 20:40 23,1 C 22,8 C 21,1 C 82 % 0 lf 1007,2 hPa 0,0 l/m 2 min 0 min 64 W/m 14,6 km/h (3 Bft) 97,87 %
19.07.2017 20:42 23,1 C 22,8 C 21,1 C 82 % 0 lf 1007,3 hPa 0,0 l/m 2 min 0 min 61 W/m 16,7 km/h (3 Bft) 100,00 %
19.07.2017 20:44 23,1 C 22,8 C 21,1 C 81 % 0 lf 1007,2 hPa 0,0 l/m 2 min 0 min 59 W/m 23,0 km/h (4 Bft) 100,00 %
19.07.2017 20:46 23,0 C 22,8 C 21,1 C 81 % 0 lf 1007,3 hPa 0,0 l/m 2 min 0 min 55 W/m 14,6 km/h (3 Bft) 100,00 %
19.07.2017 20:48 23,0 C 22,8 C 21,1 C 81 % 0 lf 1007,3 hPa 0,0 l/m 2 min 0 min 51 W/m 14,6 km/h (3 Bft) 97,87 %
19.07.2017 20:50 22,9 C 22,8 C 21,1 C 81 % 0 lf 1007,3 hPa 0,0 l/m 0 min 0 min 46 W/m 12,6 km/h (3 Bft) 100,00 %
19.07.2017 20:52 22,9 C 22,8 C 21,1 C 81 % 0 lf 1007,4 hPa 0,0 l/m 0 min 0 min 43 W/m 14,6 km/h (3 Bft) 97,87 %
19.07.2017 20:54 22,9 C 22,8 C 20,6 C 81 % 0 lf 1007,4 hPa 0,0 l/m 0 min 0 min 42 W/m 18,8 km/h (3 Bft) 100,00 %
19.07.2017 20:56 22,8 C 22,2 C 20,6 C 81 % 0 lf 1007,4 hPa 0,0 l/m 2 min 0 min 42 W/m 16,7 km/h (3 Bft) 100,00 %
19.07.2017 20:58 22,8 C 22,2 C 20,6 C 81 % 0 lf 1007,4 hPa 0,0 l/m 0 min 0 min 39 W/m 16,7 km/h (3 Bft) 100,00 %
19.07.2017 21:00 22,8 C 22,2 C 20,6 C 81 % 0 lf 1007,5 hPa 0,0 l/m 0 min 0 min 36 W/m 12,6 km/h (3 Bft) 100,00 %
19.07.2017 21:02 22,7 C 22,2 C 20,6 C 81 % 0 lf 1007,7 hPa 0,0 l/m 0 min 0 min 34 W/m 16,7 km/h (3 Bft) 100,00 %
19.07.2017 21:04 22,7 C 22,2 C 20,6 C 81 % 0 lf 1007,7 hPa 0,0 l/m 0 min 0 min 28 W/m 18,8 km/h (3 Bft) 97,87 %
19.07.2017 21:06 22,7 C 22,2 C 20,6 C 81 % 0 lf 1007,6 hPa 0,0 l/m 0 min 0 min 25 W/m 12,6 km/h (3 Bft) 97,14 %
19.07.2017 21:08 22,7 C 22,2 C 20,6 C 81 % 0 lf 1007,7 hPa 0,0 l/m 0 min 0 min 21 W/m 16,7 km/h (3 Bft) 100,00 %
19.07.2017 21:10 22,6 C 22,2 C 20,6 C 81 % 0 lf 1007,7 hPa 0,0 l/m 0 min 0 min 19 W/m 16,7 km/h (3 Bft) 93,48 %
19.07.2017 21:12 22,6 C 22,2 C 20,6 C 81 % 0 lf 1007,7 hPa 0,0 l/m 0 min 0 min 17 W/m 12,6 km/h (3 Bft) 100,00 %
19.07.2017 21:14 22,6 C 22,2 C 20,0 C 81 % 0 lf 1007,7 hPa 0,0 l/m 0 min 0 min 15 W/m 18,8 km/h (3 Bft) 100,00 %
19.07.2017 21:16 22,6 C 21,7 C 20,0 C 81 % 0 lf 1007,7 hPa 0,0 l/m 0 min 0 min 12 W/m 10,5 km/h (2 Bft) 97,87 %
19.07.2017 21:18 22,5 C 21,7 C 20,0 C 81 % 0 lf 1007,6 hPa 0,0 l/m 0 min 0 min 12 W/m 8,4 km/h (2 Bft) 97,87 %
19.07.2017 21:20 22,5 C 21,7 C 20,0 C 81 % 0 lf 1007,7 hPa 0,0 l/m 0 min 0 min 11 W/m 14,6 km/h (3 Bft) 97,87 %
19.07.2017 21:22 22,4 C 21,7 C 20,0 C 82 % 0 lf 1007,7 hPa 0,0 l/m 0 min 0 min 11 W/m 10,5 km/h (2 Bft) 97,83 %
19.07.2017 21:24 22,4 C 21,7 C 20,0 C 82 % 0 lf 1007,7 hPa 0,0 l/m 0 min 0 min 11 W/m 10,5 km/h (2 Bft) 97,87 %
19.07.2017 21:26 22,4 C 21,7 C 20,0 C 82 % 0 lf 1007,7 hPa 0,0 l/m 0 min 0 min 9 W/m 10,5 km/h (2 Bft) 93,62 %
19.07.2017 21:28 22,3 C 21,7 C 20,0 C 82 % 0 lf 1007,8 hPa 0,0 l/m 0 min 0 min 9 W/m 8,4 km/h (2 Bft) 93,62 %
19.07.2017 21:30 22,3 C 21,7 C 19,4 C 82 % 0 lf 1007,8 hPa 0,0 l/m 0 min 0 min 8 W/m 10,5 km/h (2 Bft) 97,87 %
19.07.2017 21:32 22,3 C 21,1 C 19,4 C 82 % 0 lf 1007,8 hPa 0,0 l/m 0 min 0 min 7 W/m 12,6 km/h (3 Bft) 95,74 %
19.07.2017 21:34 22,2 C 21,7 C 19,4 C 82 % 0 lf 1007,8 hPa 0,0 l/m 0 min 0 min 7 W/m 14,6 km/h (3 Bft) 95,65 %
19.07.2017 21:36 22,2 C 21,7 C 19,4 C 82 % 0 lf 1007,7 hPa 0,0 l/m 0 min 0 min 6 W/m 23,0 km/h (4 Bft) 94,55 %
19.07.2017 21:38 22,2 C 21,7 C 20,0 C 82 % 0 lf 1007,8 hPa 0,0 l/m 0 min 0 min 5 W/m 18,8 km/h (3 Bft) 97,87 %
19.07.2017 21:40 22,1 C 21,7 C 19,4 C 82 % 0 lf 1007,7 hPa 0,0 l/m 0 min 0 min 5 W/m 14,6 km/h (3 Bft) 93,62 %
19.07.2017 21:42 22,1 C 21,7 C 20,0 C 82 % 0 lf 1007,7 hPa 0,0 l/m 0 min 0 min 5 W/m 14,6 km/h (3 Bft) 95,83 %
19.07.2017 21:44 22,1 C 21,7 C 19,4 C 82 % 0 lf 1007,7 hPa 0,0 l/m 0 min 0 min 0 W/m 12,6 km/h (3 Bft) 91,30 %
19.07.2017 21:46 22,0 C 21,7 C 19,4 C 82 % 0 lf 1007,8 hPa 0,0 l/m 0 min 0 min 0 W/m 16,7 km/h (3 Bft) 93,62 %
19.07.2017 21:48 22,0 C 21,7 C 19,4 C 82 % 0 lf 1007,8 hPa 0,0 l/m 0 min 0 min 0 W/m 14,6 km/h (3 Bft) 91,49 %
19.07.2017 21:50 22,0 C 21,1 C 19,4 C 83 % 0 lf 1007,8 hPa 0,0 l/m 0 min 0 min 0 W/m 14,6 km/h (3 Bft) 97,87 %
19.07.2017 21:52 21,9 C 21,1 C 19,4 C 83 % 0 lf 1007,9 hPa 0,0 l/m 0 min 0 min 0 W/m 14,6 km/h (3 Bft) 97,87 %
19.07.2017 21:54 21,9 C 21,1 C 19,4 C 83 % 0 lf 1007,8 hPa 0,0 l/m 0 min 0 min 0 W/m 12,6 km/h (3 Bft) 95,74 %
19.07.2017 21:56 21,9 C 21,1 C 19,4 C 83 % 0 lf 1007,8 hPa 0,0 l/m 0 min 0 min 0 W/m 14,6 km/h (3 Bft) 97,83 %
19.07.2017 21:58 21,9 C 21,1 C 19,4 C 83 % 0 lf 1007,7 hPa 0,0 l/m 0 min 0 min 0 W/m 14,6 km/h (3 Bft) 95,74 %
19.07.2017 22:00 21,9 C 21,1 C 19,4 C 83 % 0 lf 1007,7 hPa 0,0 l/m 0 min 0 min 0 W/m 10,5 km/h (2 Bft) 93,62 %
19.07.2017 22:02 21,9 C 21,1 C 19,4 C 83 % 0 lf 1007,8 hPa 0,0 l/m 0 min 0 min 0 W/m 10,5 km/h (2 Bft) 93,75 %
19.07.2017 22:04 21,8 C 21,1 C 19,4 C 83 % 0 lf 1007,7 hPa 0,0 l/m 0 min 0 min 0 W/m 12,6 km/h (3 Bft) 93,62 %
19.07.2017 22:06 21,8 C 21,1 C 19,4 C 83 % 0 lf 1007,7 hPa 0,0 l/m 0 min 0 min 0 W/m 12,6 km/h (3 Bft) 93,75 %
19.07.2017 22:08 21,8 C 21,1 C 19,4 C 83 % 0 lf 1007,7 hPa 0,0 l/m 0 min 0 min 0 W/m 10,5 km/h (2 Bft) 91,49 %
19.07.2017 22:10 21,8 C 21,1 C 19,4 C 83 % 0 lf 1007,7 hPa 0,0 l/m 0 min 0 min 0 W/m 10,5 km/h (2 Bft) 93,62 %
19.07.2017 22:12 21,8 C 21,1 C 19,4 C 84 % 0 lf 1007,6 hPa 0,0 l/m 0 min 0 min 0 W/m 10,5 km/h (2 Bft) 93,62 %
19.07.2017 22:14 21,7 C 21,1 C 19,4 C 84 % 0 lf 1007,6 hPa 0,0 l/m 0 min 0 min 0 W/m 8,4 km/h (2 Bft) 91,49 %
19.07.2017 22:16 21,7 C 20,6 C 19,4 C 84 % 0 lf 1007,6 hPa 0,0 l/m 0 min 0 min 0 W/m 8,4 km/h (2 Bft) 89,13 %
19.07.2017 22:18 21,7 C 20,6 C 18,9 C 84 % 0 lf 1007,6 hPa 0,0 l/m 0 min 0 min 0 W/m 6,3 km/h (2 Bft) 91,49 %
19.07.2017 22:20 21,7 C 20,6 C 18,9 C 84 % 0 lf 1007,5 hPa 0,0 l/m 0 min 0 min 0 W/m 10,5 km/h (2 Bft) 93,62 %
19.07.2017 22:22 21,7 C 20,6 C 18,9 C 84 % 0 lf 1007,5 hPa 0,0 l/m 0 min 0 min 0 W/m 8,4 km/h (2 Bft) 93,62 %
19.07.2017 22:24 21,6 C 20,6 C 18,9 C 84 % 0 lf 1007,5 hPa 0,0 l/m 0 min 0 min 0 W/m 8,4 km/h (2 Bft) 93,62 %
19.07.2017 22:26 21,6 C 20,6 C 18,9 C 84 % 0 lf 1007,5 hPa 0,0 l/m 0 min 0 min 0 W/m 10,5 km/h (2 Bft) 91,49 %
19.07.2017 22:28 21,6 C 20,6 C 18,9 C 84 % 0 lf 1007,5 hPa 0,0 l/m 0 min 0 min 0 W/m 10,5 km/h (2 Bft) 91,30 %
19.07.2017 22:30 21,6 C 20,6 C 18,9 C 85 % 0 lf 1007,5 hPa 0,0 l/m 0 min 0 min 0 W/m 8,4 km/h (2 Bft) 93,62 %
19.07.2017 22:32 21,5 C 20,6 C 18,9 C 85 % 0 lf 1007,5 hPa 0,0 l/m 0 min 0 min 0 W/m 14,6 km/h (3 Bft) 94,29 %
19.07.2017 22:34 21,4 C 20,6 C 18,9 C 85 % 0 lf 1007,5 hPa 0,0 l/m 0 min 0 min 0 W/m 10,5 km/h (2 Bft) 95,74 %
19.07.2017 22:36 21,4 C 20,6 C 18,9 C 85 % 0 lf 1007,4 hPa 0,0 l/m 0 min 0 min 0 W/m 10,5 km/h (2 Bft) 91,49 %
19.07.2017 22:38 21,4 C 20,6 C 18,9 C 85 % 0 lf 1007,4 hPa 0,0 l/m 0 min 0 min 0 W/m 10,5 km/h (2 Bft) 93,62 %
19.07.2017 22:40 21,3 C 20,6 C 18,9 C 85 % 0 lf 1007,3 hPa 0,0 l/m 0 min 0 min 0 W/m 8,4 km/h (2 Bft) 91,49 %
19.07.2017 22:42 21,3 C 20,0 C 18,9 C 85 % 0 lf 1007,3 hPa 0,0 l/m 0 min 0 min 0 W/m 10,5 km/h (2 Bft) 95,74 %
19.07.2017 22:44 21,3 C 20,6 C 18,9 C 85 % 0 lf 1007,3 hPa 0,0 l/m 0 min 0 min 0 W/m 12,6 km/h (3 Bft) 95,65 %
19.07.2017 22:46 21,3 C 20,0 C 18,9 C 86 % 0 lf 1007,4 hPa 0,0 l/m 0 min 0 min 0 W/m 10,5 km/h (2 Bft) 95,74 %
19.07.2017 22:48 21,2 C 20,0 C 18,9 C 86 % 0 lf 1007,3 hPa 0,0 l/m 0 min 0 min 0 W/m 12,6 km/h (3 Bft) 95,74 %
19.07.2017 22:50 21,2 C 20,0 C 18,9 C 86 % 0 lf 1007,5 hPa 0,0 l/m 0 min 0 min 0 W/m 8,4 km/h (2 Bft) 96,61 %
19.07.2017 22:52 21,2 C 20,0 C 18,9 C 86 % 0 lf 1007,3 hPa 0,0 l/m 0 min 0 min 0 W/m 10,5 km/h (2 Bft) 94,29 %
19.07.2017 22:54 21,1 C 20,6 C 18,9 C 86 % 0 lf 1007,3 hPa 0,0 l/m 0 min 0 min 0 W/m 23,0 km/h (4 Bft) 97,87 %
19.07.2017 22:56 21,1 C 20,0 C 18,9 C 87 % 0 lf 1007,4 hPa 0,0 l/m 0 min 0 min 0 W/m 10,5 km/h (2 Bft) 95,65 %
19.07.2017 22:58 21,1 C 20,6 C 18,9 C 87 % 0 lf 1007,4 hPa 0,0 l/m 0 min 0 min 0 W/m 10,5 km/h (2 Bft) 100,00 %
19.07.2017 23:00 21,0 C 20,6 C 18,9 C 87 % 0 lf 1007,3 hPa 0,0 l/m 0 min 0 min 0 W/m 10,5 km/h (2 Bft) 100,00 %
19.07.2017 23:02 21,0 C 20,6 C 18,9 C 87 % 0 lf 1007,3 hPa 0,0 l/m 0 min 0 min 0 W/m 6,3 km/h (2 Bft) 95,74 %
19.07.2017 23:04 21,0 C 20,6 C 18,9 C 87 % 0 lf 1007,3 hPa 0,0 l/m 0 min 0 min 0 W/m 10,5 km/h (2 Bft) 97,87 %
19.07.2017 23:06 21,0 C 20,6 C 18,9 C 87 % 0 lf 1007,3 hPa 0,0 l/m 0 min 0 min 0 W/m 10,5 km/h (2 Bft) 100,00 %
19.07.2017 23:08 21,0 C 20,6 C 18,9 C 87 % 0 lf 1007,3 hPa 0,0 l/m 0 min 0 min 0 W/m 10,5 km/h (2 Bft) 97,87 %
19.07.2017 23:10 20,9 C 20,6 C 18,9 C 87 % 0 lf 1007,3 hPa 0,0 l/m 0 min 0 min 0 W/m 14,6 km/h (3 Bft) 100,00 %
19.07.2017 23:12 20,9 C 20,6 C 18,9 C 87 % 0 lf 1007,3 hPa 0,0 l/m 0 min 0 min 0 W/m 14,6 km/h (3 Bft) 100,00 %
19.07.2017 23:14 20,9 C 20,6 C 18,9 C 88 % 0 lf 1007,3 hPa 0,0 l/m 0 min 0 min 0 W/m 14,6 km/h (3 Bft) 97,87 %
19.07.2017 23:16 20,9 C 20,6 C 18,9 C 88 % 0 lf 1007,4 hPa 0,0 l/m 0 min 0 min 0 W/m 12,6 km/h (3 Bft) 100,00 %
19.07.2017 23:18 20,9 C 20,6 C 18,9 C 88 % 0 lf 1007,3 hPa 0,0 l/m 0 min 0 min 0 W/m 16,7 km/h (3 Bft) 100,00 %
19.07.2017 23:20 20,9 C 20,6 C 18,9 C 88 % 0 lf 1007,3 hPa 0,0 l/m 0 min 0 min 0 W/m 6,3 km/h (2 Bft) 97,87 %
19.07.2017 23:22 20,8 C 20,6 C 18,9 C 88 % 0 lf 1007,3 hPa 0,0 l/m 0 min 0 min 0 W/m 8,4 km/h (2 Bft) 97,87 %
19.07.2017 23:24 20,8 C 20,6 C 18,9 C 88 % 0 lf 1007,3 hPa 0,0 l/m 0 min 0 min 0 W/m 8,4 km/h (2 Bft) 95,74 %
19.07.2017 23:26 20,8 C 20,6 C 18,9 C 88 % 0 lf 1007,2 hPa 0,0 l/m 0 min 0 min 0 W/m 12,6 km/h (3 Bft) 93,62 %
19.07.2017 23:28 20,8 C 20,6 C 18,9 C 88 % 0 lf 1007,2 hPa 0,0 l/m 0 min 0 min 0 W/m 14,6 km/h (3 Bft) 97,83 %
19.07.2017 23:30 20,8 C 20,6 C 18,9 C 88 % 0 lf 1007,2 hPa 0,0 l/m 0 min 0 min 0 W/m 8,4 km/h (2 Bft) 97,87 %
19.07.2017 23:32 20,8 C 20,6 C 18,9 C 88 % 0 lf 1007,2 hPa 0,0 l/m 0 min 0 min 0 W/m 16,7 km/h (3 Bft) 94,29 %
19.07.2017 23:34 20,8 C 20,6 C 18,9 C 88 % 0 lf 1007,2 hPa 0,0 l/m 0 min 0 min 0 W/m 16,7 km/h (3 Bft) 97,87 %
19.07.2017 23:36 20,8 C 20,6 C 18,9 C 88 % 0 lf 1007,2 hPa 0,0 l/m 0 min 0 min 0 W/m 14,6 km/h (3 Bft) 97,87 %
19.07.2017 23:38 20,8 C 20,6 C 18,9 C 88 % 0 lf 1007,2 hPa 0,0 l/m 0 min 0 min 0 W/m 10,5 km/h (2 Bft) 97,87 %
19.07.2017 23:40 20,8 C 20,6 C 18,9 C 88 % 0 lf 1007,2 hPa 0,0 l/m 0 min 0 min 0 W/m 8,4 km/h (2 Bft) 97,87 %
19.07.2017 23:42 20,8 C 20,6 C 18,9 C 88 % 0 lf 1007,2 hPa 0,0 l/m 0 min 0 min 0 W/m 8,4 km/h (2 Bft) 97,83 %
19.07.2017 23:44 20,7 C 20,0 C 18,9 C 89 % 0 lf 1007,2 hPa 0,0 l/m 0 min 0 min 0 W/m 8,4 km/h (2 Bft) 95,74 %
19.07.2017 23:46 20,7 C 20,6 C 18,9 C 89 % 0 lf 1007,2 hPa 0,0 l/m 0 min 0 min 0 W/m 10,5 km/h (2 Bft) 95,74 %
19.07.2017 23:48 20,7 C 20,0 C 18,9 C 89 % 0 lf 1007,2 hPa 0,0 l/m 0 min 0 min 0 W/m 10,5 km/h (2 Bft) 97,87 %
19.07.2017 23:50 20,7 C 20,0 C 18,9 C 89 % 0 lf 1007,2 hPa 0,0 l/m 0 min 0 min 0 W/m 12,6 km/h (3 Bft) 97,87 %
19.07.2017 23:52 20,7 C 20,0 C 18,9 C 89 % 0 lf 1007,2 hPa 0,0 l/m 0 min 0 min 0 W/m 10,5 km/h (2 Bft) 100,00 %
19.07.2017 23:54 20,7 C 20,0 C 18,9 C 88 % 0 lf 1007,2 hPa 0,0 l/m 0 min 0 min 0 W/m 16,7 km/h (3 Bft) 100,00 %
19.07.2017 23:56 20,7 C 20,0 C 18,9 C 89 % 0 lf 1007,1 hPa 0,0 l/m 0 min 0 min 0 W/m 8,4 km/h (2 Bft) 100,00 %
19.07.2017 23:58 20,7 C 20,0 C 18,9 C 89 % 0 lf 1007,2 hPa 0,0 l/m 0 min 0 min 0 W/m 14,6 km/h (3 Bft) 100,00 %
_ Min-Zeit 04:28 03:46 03:56 14:20 00:00 20:08 - - - - 03:32 00:02
Minimum _ 19,1 C 18,3 C 16,1 C 49 % 0 lf 1007,0 hPa - - - - 0,0 km/h (0 Bft) 9,09 %
_ Max-Zeit 14:16 14:10 14:16 17:54 15:28 00:00 15:34 12:12 15:28 14:08 15:16 00:04
Maximum _ 34,3 C 41,7 C 39,4 C 95 % 15 lf 1012,6 hPa 1,8 l/m 4 min 2 min 829 W/m 48,1 km/h
W-SW (6 Bft)
100,00 %
Durchschnitt _ 23,8 C 24,7 C 23,0 C 75 % 2 lf 1009,0 hPa #8,6 l/m #10:22 h #1:48 h 304 W/m 15,6 km/h (3 Bft) 96,36 %
© 2017 W. Hausmann